FW4143 Weather Reports


time (UTC)temp
F
wind
direction
speed
knots
gust
knots
rain 1hr
in
rain 24hr
in
rain mn
in
humidity
%
barometer
mb
20260901191203 97 264 2.6 6.1 0.00 0.00 0.00 36 1015.0
20260901191103 98 267 2.6 6.1 0.00 0.00 0.00 36 1014.9
20260901191024 97 275 2.6 6.1 0.00 0.00 0.00 36 1014.9
20260901190904 97 277 2.6 6.1 0.00 0.00 0.00 36 1014.9
20260901190803 97 276 2.6 6.1 0.00 0.00 0.00 36 1014.9
20260901190703 97 274 2.6 6.1 0.00 0.00 0.00 36 1015.0
20260901190603 97 279 2.6 6.1 0.00 0.00 0.00 36 1015.0
20260901190503 97 283 2.6 6.1 0.00 0.00 0.00 36 1015.0
20260901190403 97 286 2.6 6.1 0.00 0.00 0.00 36 1015.0
20260901190303 97 290 2.6 6.1 0.00 0.00 0.00 36 1015.0
20260901190224 97 292 2.6 6.1 0.00 0.00 0.00 36 1015.0
20260901190124 97 295 2.6 6.1 0.00 0.00 0.00 36 1015.0
20260901190003 97 290 2.6 6.1 0.00 0.00 0.00 36 1015.0
20260901185903 97 285 2.6 6.1 0.00 0.00 0.00 35 1015.1
20260901185803 98 277 2.6 6.1 0.00 0.00 0.00 35 1015.1
20260901185703 97 279 2.6 6.1 0.00 0.00 0.00 36 1015.1
20260901185603 97 246 2.6 6.1 0.00 0.00 0.00 36 1015.1
20260901185503 97 224 2.6 5.2 0.00 0.00 0.00 36 1015.2
20260901185403 96 215 2.6 5.2 0.00 0.00 0.00 36 1015.2
20260901185305 96 206 2.6 5.2 0.00 0.00 0.00 37 1015.2
20260901185203 96 200 2.6 5.2 0.00 0.00 0.00 36 1015.2
20260901185103 96 198 1.7 5.2 0.00 0.00 0.00 36 1015.2
20260901185003 96 203 2.6 5.2 0.00 0.00 0.00 36 1015.3
20260901184903 96 213 2.6 5.2 0.00 0.00 0.00 36 1015.3
20260901184803 96 220 2.6 5.2 0.00 0.00 0.00 36 1015.3
20260901184703 97 224 2.6 5.2 0.00 0.00 0.00 35 1015.3
20260901184603 96 228 2.6 5.2 0.00 0.00 0.00 36 1015.4
20260901184503 96 229 2.6 5.2 0.00 0.00 0.00 36 1015.4
20260901184424 96 229 2.6 6.1 0.00 0.00 0.00 36 1015.4
20260901184303 96 229 2.6 6.1 0.00 0.00 0.00 36 1015.4
20260901184203 96 230 2.6 6.1 0.00 0.00 0.00 36 1015.4
20260901184103 96 230 2.6 6.1 0.00 0.00 0.00 36 1015.5
20260901184003 96 230 2.6 6.1 0.00 0.00 0.00 36 1015.5
20260901183924 96 231 2.6 6.1 0.00 0.00 0.00 36 1015.5
20260901183803 96 232 2.6 6.1 0.00 0.00 0.00 36 1015.5
20260901183703 96 229 2.6 6.1 0.00 0.00 0.00 36 1015.5
20260901183624 96 228 2.6 6.1 0.00 0.00 0.00 36 1015.5
20260901183503 96 228 1.7 6.1 0.00 0.00 0.00 36 1015.5
20260901183403 95 231 1.7 6.1 0.00 0.00 0.00 36 1015.6
20260901183324 95 232 2.6 6.1 0.00 0.00 0.00 36 1015.7
20260901183203 95 235 1.7 6.1 0.00 0.00 0.00 36 1015.6
20260901183103 95 239 2.6 6.1 0.00 0.00 0.00 37 1015.7
20260901183004 95 242 2.6 6.1 0.00 0.00 0.00 37 1015.7
20260901182903 94 245 2.6 6.1 0.00 0.00 0.00 36 1015.7
20260901182803 94 249 2.6 6.1 0.00 0.00 0.00 37 1015.7
20260901182703 94 252 2.6 6.1 0.00 0.00 0.00 37 1015.7
20260901182603 94 253 2.6 6.1 0.00 0.00 0.00 37 1015.7
20260901182503 94 255 2.6 6.1 0.00 0.00 0.00 36 1015.7
20260901182403 94 258 2.6 6.1 0.00 0.00 0.00 36 1015.8
20260901182305 94 260 2.6 5.2 0.00 0.00 0.00 37 1015.8
20260901182203 94 260 2.6 5.2 0.00 0.00 0.00 36 1015.8
20260901182103 94 260 2.6 5.2 0.00 0.00 0.00 36 1015.8
20260901182003 95 260 2.6 5.2 0.00 0.00 0.00 36 1015.8
20260901181924 95 259 2.6 5.2 0.00 0.00 0.00 36 1015.9
20260901181803 95 255 1.7 5.2 0.00 0.00 0.00 36 1015.8
20260901181703 95 255 1.7 4.3 0.00 0.00 0.00 36 1015.8
20260901181624 95 257 2.6 4.3 0.00 0.00 0.00 36 1015.9
20260901181503 94 260 2.6 5.2 0.00 0.00 0.00 36 1015.9
20260901181406 94 266 2.6 5.2 0.00 0.00 0.00 36 1015.9
20260901181303 94 273 2.6 6.1 0.00 0.00 0.00 36 1015.9
20260901181203 95 272 2.6 7.8 0.00 0.00 0.00 36 1015.9
20260901181124 95 273 2.6 7.8 0.00 0.00 0.00 36 1015.9
20260901181003 95 277 2.6 7.8 0.00 0.00 0.00 36 1015.9
20260901180903 95 278 2.6 7.8 0.00 0.00 0.00 35 1016.0
20260901180803 95 282 2.6 7.8 0.00 0.00 0.00 35 1016.0
20260901180703 95 284 2.6 7.8 0.00 0.00 0.00 35 1016.0
20260901180603 95 282 2.6 7.8 0.00 0.00 0.00 35 1015.9
20260901180503 95 278 2.6 7.8 0.00 0.00 0.00 36 1015.9
20260901180424 95 274 2.6 7.8 0.00 0.00 0.00 36 1016.0
20260901180303 95 264 2.6 7.8 0.00 0.00 0.00 36 1016.0
20260901180203 95 264 2.6 6.1 0.00 0.00 0.00 35 1016.0
20260901180103 95 263 2.6 6.1 0.00 0.00 0.00 35 1016.0
20260901180003 95 262 2.6 6.1 0.00 0.00 0.00 35 1016.1
20260901175903 95 259 2.6 6.1 0.00 0.00 0.00 35 1016.1
20260901175803 94 256 2.6 6.1 0.00 0.00 0.00 35 1016.1
20260901175703 94 248 2.6 7.0 0.00 0.00 0.00 36 1016.2
20260901175603 94 247 2.6 7.0 0.00 0.00 0.00 36 1016.2
20260901175503 94 244 2.6 7.0 0.00 0.00 0.00 36 1016.2
20260901175403 94 242 2.6 7.0 0.00 0.00 0.00 36 1016.2
20260901175305 93 240 3.5 7.0 0.00 0.00 0.00 36 1016.2
20260901175203 93 240 3.5 7.0 0.00 0.00 0.00 36 1016.2
20260901175103 93 239 3.5 7.0 0.00 0.00 0.00 36 1016.2
20260901175003 93 237 3.5 7.0 0.00 0.00 0.00 36 1016.3
20260901174903 93 236 3.5 7.0 0.00 0.00 0.00 36 1016.3
20260901174803 93 235 2.6 7.0 0.00 0.00 0.00 36 1016.3
20260901174703 93 234 2.6 6.1 0.00 0.00 0.00 36 1016.4
20260901174603 93 232 1.7 6.1 0.00 0.00 0.00 36 1016.4
20260901174503 93 234 1.7 5.2 0.00 0.00 0.00 36 1016.4
20260901174403 93 234 1.7 5.2 0.00 0.00 0.00 36 1016.4
20260901174303 93 232 1.7 5.2 0.00 0.00 0.00 36 1016.4
20260901174203 93 232 1.7 5.2 0.00 0.00 0.00 36 1016.5
20260901174103 94 235 1.7 6.1 0.00 0.00 0.00 36 1016.5
20260901174003 94 242 1.7 7.0 0.00 0.00 0.00 36 1016.5
20260901173903 94 245 2.6 7.0 0.00 0.00 0.00 35 1016.5
20260901173803 94 248 2.6 7.0 0.00 0.00 0.00 35 1016.5
20260901173703 94 253 2.6 7.0 0.00 0.00 0.00 35 1016.4
20260901173603 94 253 2.6 7.0 0.00 0.00 0.00 35 1016.4
20260901173503 94 254 2.6 7.0 0.00 0.00 0.00 35 1016.5
20260901173403 94 255 2.6 7.0 0.00 0.00 0.00 35 1016.5
20260901173303 94 259 2.6 7.0 0.00 0.00 0.00 34 1016.5
20260901173203 94 261 2.6 7.0 0.00 0.00 0.00 35 1016.5
20260901173103 94 258 2.6 7.0 0.00 0.00 0.00 34 1016.5
20260901173024 94 257 2.6 7.0 0.00 0.00 0.00 34 1016.5
20260901172924 94 254 2.6 6.1 0.00 0.00 0.00 34 1016.6
20260901172803 94 248 1.7 6.1 0.00 0.00 0.00 34 1016.5
20260901172703 94 238 1.7 6.1 0.00 0.00 0.00 34 1016.5
20260901172603 94 235 1.7 6.1 0.00 0.00 0.00 34 1016.6
20260901172524 94 236 2.6 6.1 0.00 0.00 0.00 34 1016.6
20260901172403 94 237 2.6 6.1 0.00 0.00 0.00 34 1016.7
20260901172305 94 233 1.7 6.1 0.00 0.00 0.00 34 1016.7
20260901172203 94 232 1.7 5.2 0.00 0.00 0.00 33 1016.7
20260901172124 94 237 1.7 5.2 0.00 0.00 0.00 33 1016.7
20260901172003 94 241 2.6 5.2 0.00 0.00 0.00 34 1016.7
20260901171903 94 241 2.6 5.2 0.00 0.00 0.00 34 1016.8
20260901171803 94 244 2.6 6.1 0.00 0.00 0.00 34 1016.7
20260901171703 94 246 2.6 6.1 0.00 0.00 0.00 34 1016.8
20260901171603 94 246 2.6 6.1 0.00 0.00 0.00 34 1016.8
20260901171503 94 246 2.6 6.1 0.00 0.00 0.00 33 1016.8
20260901171403 94 246 2.6 6.1 0.00 0.00 0.00 33 1016.8
20260901171303 94 244 2.6 6.1 0.00 0.00 0.00 34 1016.8
20260901171203 93 243 2.6 6.1 0.00 0.00 0.00 33 1016.8
20260901171124 93 243 2.6 6.1 0.00 0.00 0.00 33 1016.8
20260901171003 93 244 2.6 6.1 0.00 0.00 0.00 33 1016.8
20260901170903 93 244 2.6 6.1 0.00 0.00 0.00 33 1016.8
20260901170803 93 244 2.6 6.1 0.00 0.00 0.00 33 1016.8
20260901170703 93 245 1.7 6.1 0.00 0.00 0.00 33 1016.8
20260901170603 93 245 1.7 6.1 0.00 0.00 0.00 33 1016.8
20260901170504 93 243 1.7 6.1 0.00 0.00 0.00 33 1016.8
20260901170403 93 240 1.7 5.2 0.00 0.00 0.00 33 1016.8
20260901170303 93 236 1.7 5.2 0.00 0.00 0.00 33 1016.9
20260901170203 93 229 1.7 5.2 0.00 0.00 0.00 33 1016.9
20260901170024 93 221 0.9 5.2 0.00 0.00 0.00 32 1016.9
20260901165903 93 216 1.7 4.3 0.00 0.00 0.00 32 1016.9
20260901165824 93 214 1.7 4.3 0.00 0.00 0.00 32 1016.9
20260901165724 93 215 1.7 4.3 0.00 0.00 0.00 32 1016.9
20260901165603 93 214 0.9 4.3 0.00 0.00 0.00 32 1017.0
20260901165503 93 211 0.9 4.3 0.00 0.00 0.00 32 1016.9
20260901165403 93 218 1.7 5.2 0.00 0.00 0.00 32 1017.0
20260901165324 93 222 1.7 5.2 0.00 0.00 0.00 32 1017.0
20260901165203 93 233 1.7 6.1 0.00 0.00 0.00 32 1017.0
20260901165103 93 236 1.7 6.1 0.00 0.00 0.00 32 1017.0
20260901165004 93 238 1.7 6.1 0.00 0.00 0.00 32 1017.0
20260901164903 93 245 1.7 6.1 0.00 0.00 0.00 32 1017.0
20260901164803 93 262 1.7 6.1 0.00 0.00 0.00 32 1017.0
20260901164703 93 267 1.7 6.1 0.00 0.00 0.00 32 1017.0
20260901164603 93 274 1.7 6.1 0.00 0.00 0.00 32 1017.1
20260901164524 93 276 1.7 6.1 0.00 0.00 0.00 31 1017.0
20260901164403 94 39 1.7 6.1 0.00 0.00 0.00 31 1017.0
20260901164303 94 57 1.7 6.1 0.00 0.00 0.00 30 1017.0
20260901164203 94 65 1.7 6.1 0.00 0.00 0.00 30 1017.0
20260901164103 94 69 1.7 5.2 0.00 0.00 0.00 30 1017.0
20260901164003 94 71 1.7 5.2 0.00 0.00 0.00 30 1016.9
20260901163903 94 72 1.7 5.2 0.00 0.00 0.00 30 1017.0
20260901163803 93 73 1.7 5.2 0.00 0.00 0.00 30 1017.0
20260901163703 93 74 1.7 5.2 0.00 0.00 0.00 29 1017.0
20260901163603 93 75 1.7 5.2 0.00 0.00 0.00 29 1017.1
20260901163503 93 75 1.7 5.2 0.00 0.00 0.00 29 1017.0
20260901163427 93 76 1.7 5.2 0.00 0.00 0.00 29 1017.0
20260901163303 93 79 0.9 4.3 0.00 0.00 0.00 29 1017.0
20260901163203 93 81 0.9 4.3 0.00 0.00 0.00 28 1017.0
20260901163103 93 82 0.9 3.5 0.00 0.00 0.00 28 1017.0
20260901163024 93 81 0.9 3.5 0.00 0.00 0.00 28 1017.0
20260901162924 93 80 0.9 3.5 0.00 0.00 0.00 28 1017.0
20260901162803 93 78 0.9 3.5 0.00 0.00 0.00 27 1017.0
20260901162703 92 78 0.9 2.6 0.00 0.00 0.00 28 1017.1
20260901162624 92 77 0.9 2.6 0.00 0.00 0.00 28 1017.1
20260901162524 92 77 0.9 2.6 0.00 0.00 0.00 28 1017.1
20260901162403 92 76 0.9 2.6 0.00 0.00 0.00 28 1017.1
20260901162306 92 76 0.9 2.6 0.00 0.00 0.00 28 1017.1
20260901162203 93 74 0.9 2.6 0.00 0.00 0.00 27 1017.1
20260901162103 93 73 0.9 2.6 0.00 0.00 0.00 27 1017.1
20260901162003 93 72 0.9 2.6 0.00 0.00 0.00 26 1017.2
20260901161924 93 71 0.9 2.6 0.00 0.00 0.00 26 1017.2
20260901161803 93 70 0.9 2.6 0.00 0.00 0.00 26 1017.2
20260901161703 92 70 0.9 2.6 0.00 0.00 0.00 26 1017.2
20260901161603 92 70 0.9 2.6 0.00 0.00 0.00 25 1017.2
20260901161503 92 70 0.9 2.6 0.00 0.00 0.00 25 1017.2
20260901161424 92 70 0.9 2.6 0.00 0.00 0.00 26 1017.2
20260901161303 92 69 0.9 2.6 0.00 0.00 0.00 26 1017.2
20260901161203 92 69 1.7 3.5 0.00 0.00 0.00 26 1017.2
20260901161103 92 69 1.7 3.5 0.00 0.00 0.00 25 1017.2
20260901161003 91 68 1.7 3.5 0.00 0.00 0.00 25 1017.2
20260901160903 91 68 1.7 3.5 0.00 0.00 0.00 25 1017.2
20260901160803 91 68 1.7 3.5 0.00 0.00 0.00 25 1017.2
20260901160703 91 68 1.7 3.5 0.00 0.00 0.00 25 1017.2
20260901160603 91 68 1.7 3.5 0.00 0.00 0.00 25 1017.2
20260901160503 91 68 0.9 3.5 0.00 0.00 0.00 25 1017.2
20260901160403 91 67 0.9 3.5 0.00 0.00 0.00 25 1017.2
20260901160324 91 67 0.9 3.5 0.00 0.00 0.00 24 1017.2
20260901160203 91 68 0.9 3.5 0.00 0.00 0.00 24 1017.2
20260901160024 91 68 0.9 4.3 0.00 0.00 0.00 23 1017.2
20260901155903 91 68 1.7 4.3 0.00 0.00 0.00 23 1017.2
20260901155803 91 68 1.7 5.2 0.00 0.00 0.00 23 1017.2
20260901155703 90 69 1.7 5.2 0.00 0.00 0.00 24 1017.2
20260901155603 90 69 1.7 5.2 0.00 0.00 0.00 24 1017.2
20260901155503 90 70 1.7 5.2 0.00 0.00 0.00 23 1017.3
20260901155403 90 71 2.6 5.2 0.00 0.00 0.00 24 1017.2
20260901155306 90 72 2.6 5.2 0.00 0.00 0.00 24 1017.2
20260901155203 90 73 2.6 5.2 0.00 0.00 0.00 24 1017.3
20260901155103 90 74 2.6 5.2 0.00 0.00 0.00 23 1017.3
20260901155024 90 75 1.7 5.2 0.00 0.00 0.00 24 1017.3
20260901154903 90 76 1.7 5.2 0.00 0.00 0.00 23 1017.2
20260901154803 90 78 1.7 3.5 0.00 0.00 0.00 22 1017.3
20260901154724 90 78 1.7 3.5 0.00 0.00 0.00 22 1017.3
20260901154603 90 78 1.7 3.5 0.00 0.00 0.00 23 1017.3
20260901154503 90 78 1.7 3.5 0.00 0.00 0.00 22 1017.3
20260901154403 90 77 1.7 3.5 0.00 0.00 0.00 22 1017.2
20260901154324 90 77 1.7 3.5 0.00 0.00 0.00 22 1017.3
20260901154224 90 76 1.7 3.5 0.00 0.00 0.00 22 1017.2
20260901154103 90 76 1.7 3.5 0.00 0.00 0.00 21 1017.3
20260901154005 90 75 1.7 3.5 0.00 0.00 0.00 21 1017.3
20260901153903 90 75 1.7 3.5 0.00 0.00 0.00 21 1017.3
20260901153803 90 75 1.7 3.5 0.00 0.00 0.00 21 1017.2
20260901153703 90 76 1.7 3.5 0.00 0.00 0.00 20 1017.2
20260901153603 91 76 1.7 3.5 0.00 0.00 0.00 20 1017.2
20260901153503 91 76 1.7 3.5 0.00 0.00 0.00 19 1017.2
20260901153403 91 76 1.7 3.5 0.00 0.00 0.00 18 1017.2
20260901153303 91 76 1.7 3.5 0.00 0.00 0.00 18 1017.2
20260901153203 90 76 1.7 3.5 0.00 0.00 0.00 17 1017.2
20260901153104 90 76 0.9 3.5 0.00 0.00 0.00 15 1017.2
20260901153003 90 77 0.9 3.5 0.00 0.00 0.00 15 1017.2
20260901152903 90 77 0.9 3.5 0.00 0.00 0.00 15 1017.2
20260901152824 90 77 0.9 3.5 0.00 0.00 0.00 15 1017.2
20260901152703 90 77 0.9 2.6 0.00 0.00 0.00 14 1017.2
20260901152624 90 77 0.9 2.6 0.00 0.00 0.00 14 1017.2
20260901152503 90 77 0.9 2.6 0.00 0.00 0.00 13 1017.2
20260901152403 90 77 0.9 2.6 0.00 0.00 0.00 12 1017.2
20260901152324 90 77 0.9 2.6 0.00 0.00 0.00 11 1017.2
20260901152224 90 78 0.9 1.7 0.00 0.00 0.00 10 1017.2
20260901152103 90 78 0.9 2.6 0.00 0.00 0.00 10 1017.2
20260901152003 89 77 0.9 2.6 0.00 0.00 0.00 11 1017.2
20260901151903 89 77 0.9 2.6 0.00 0.00 0.00 10 1017.2
20260901151824 89 77 0.9 2.6 0.00 0.00 0.00 10 1017.2
20260901151703 89 77 1.7 3.5 0.00 0.00 0.00 9 1017.3
20260901151603 89 77 0.9 3.5 0.00 0.00 0.00 9 1017.2
20260901151503 89 77 1.7 3.5 0.00 0.00 0.00 9 1017.2
20260901151404 89 77 1.7 3.5 0.00 0.00 0.00 8 1017.2
20260901151303 88 76 1.7 4.3 0.00 0.00 0.00 8 1017.2
20260901151203 88 77 1.7 4.3 0.00 0.00 0.00 8 1017.2
20260901151103 88 78 1.7 4.3 0.00 0.00 0.00 8 1017.2
20260901151024 88 79 1.7 4.3 0.00 0.00 0.00 8 1017.2
20260901150903 88 80 1.7 4.3 0.00 0.00 0.00 6 1017.2
20260901150803 88 80 1.7 4.3 0.00 0.00 0.00 4 1017.2
20260901150724 88 81 1.7 4.3 0.00 0.00 0.00 2 1017.2
20260901150603 88 82 1.7 4.3 0.00 0.00 0.00 4 1017.2
20260901150503 88 82 1.7 4.3 0.00 0.00 0.00 3 1017.1
20260901150403 88 83 1.7 4.3 0.00 0.00 0.00 3 1017.2
20260901150303 88 85 1.7 4.3 0.00 0.00 0.00 1 1017.1
20260901150203 88 85 1.7 3.5 0.00 0.00 0.00 1 1017.2
20260901150124 88 85 1.7 4.3 0.00 0.00 0.00 1 1017.2
20260901150024 88 85 1.7 4.3 0.00 0.00 0.00 1 1017.2
20260901145903 88 85 1.7 4.3 0.00 0.00 0.00 1 1017.2
20260901145824 88 84 1.7 4.3 0.00 0.00 0.00 1 1017.2
20260901145703 88 86 1.7 4.3 0.00 0.00 0.00 1 1017.2
20260901145603 88 87 1.7 4.3 0.00 0.00 0.00 1 1017.2
20260901145503 88 87 1.7 4.3 0.00 0.00 0.00 1 1017.2
20260901145403 88 87 1.7 4.3 0.00 0.00 0.00 1 1017.2
20260901145306 87 88 1.7 4.3 0.00 0.00 0.00 1 1017.2
20260901145203 87 88 1.7 4.3 0.00 0.00 0.00 1 1017.2
20260901145103 87 88 1.7 4.3 0.00 0.00 0.00 1 1017.2
20260901145003 87 89 1.7 4.3 0.00 0.00 0.00 1 1017.2
20260901144903 87 91 0.9 4.3 0.00 0.00 0.00 1 1017.2
20260901144824 87 92 0.9 3.5 0.00 0.00 0.00 1 1017.2
20260901144703 87 91 0.9 2.6 0.00 0.00 0.00 1 1017.2
20260901144603 87 89 0.9 4.3 0.00 0.00 0.00 1 1017.2
20260901144503 87 88 1.7 4.3 0.00 0.00 0.00 1 1017.1
20260901144403 87 88 1.7 4.3 0.00 0.00 0.00 1 1017.2
20260901144303 87 87 1.7 4.3 0.00 0.00 0.00 1 1017.2
20260901144203 87 87 1.7 4.3 0.00 0.00 0.00 1 1017.2
20260901144104 87 86 1.7 4.3 0.00 0.00 0.00 1 1017.2
20260901144003 87 85 1.7 4.3 0.00 0.00 0.00 1 1017.2
20260901143903 87 85 1.7 4.3 0.00 0.00 0.00 1 1017.3
20260901143803 87 84 1.7 4.3 0.00 0.00 0.00 1 1017.3
20260901143703 87 84 1.7 4.3 0.00 0.00 0.00 1 1017.3
20260901143604 87 83 1.7 4.3 0.00 0.00 0.00 1 1017.3
20260901143504 87 82 1.7 4.3 0.00 0.00 0.00 1 1017.3
20260901143424 87 82 1.7 4.3 0.00 0.00 0.00 1 1017.3
20260901143303 86 82 1.7 4.3 0.00 0.00 0.00 1 1017.3
20260901143203 86 82 1.7 4.3 0.00 0.00 0.00 1 1017.3
20260901143124 86 82 1.7 4.3 0.00 0.00 0.00 1 1017.3
20260901143003 86 82 1.7 4.3 0.00 0.00 0.00 1 1017.3
20260901142903 86 82 1.7 4.3 0.00 0.00 0.00 1 1017.3
20260901142803 86 82 1.7 4.3 0.00 0.00 0.00 1 1017.3
20260901142703 86 82 1.7 4.3 0.00 0.00 0.00 1 1017.3
20260901142603 86 83 1.7 4.3 0.00 0.00 0.00 1 1017.3
20260901142503 86 83 1.7 4.3 0.00 0.00 0.00 1 1017.3
20260901142403 86 83 0.9 4.3 0.00 0.00 0.00 1 1017.4
20260901142305 86 83 0.9 4.3 0.00 0.00 0.00 1 1017.4
20260901142224 86 83 0.9 4.3 0.00 0.00 0.00 1 1017.4
20260901142103 86 83 0.9 4.3 0.00 0.00 0.00 1 1017.4
20260901142003 87 83 0.9 4.3 0.00 0.00 0.00 1 1017.4
20260901141904 87 84 0.9 4.3 0.00 0.00 0.00 1 1017.4
20260901141824 87 84 0.9 2.6 0.00 0.00 0.00 1 1017.4
20260901141703 87 84 0.9 2.6 0.00 0.00 0.00 1 1017.4
20260901141603 87 84 0.9 2.6 0.00 0.00 0.00 1 1017.5
20260901141503 87 83 0.0 2.6 0.00 0.00 0.00 1 1017.5
20260901141403 88 82 0.0 1.7 0.00 0.00 0.00 1 1017.5
20260901141303 88 82 0.0 1.7 0.00 0.00 0.00 1 1017.6
20260901141224 88 82 0.0 1.7 0.00 0.00 0.00 1 1017.5
20260901141103 88 82 0.0 0.9 0.00 0.00 0.00 1 1017.5
20260901141003 88 82 0.0 0.9 0.00 0.00 0.00 1 1017.5
20260901140903 87 82 0.0 0.9 0.00 0.00 0.00 1 1017.5
20260901140803 87 82 0.0 0.9 0.00 0.00 0.00 1 1017.5
20260901140703 87 82 0.0 0.9 0.00 0.00 0.00 1 1017.6
20260901140603 87 82 0.0 1.7 0.00 0.00 0.00 1 1017.6
20260901140524 86 82 0.0 1.7 0.00 0.00 0.00 1 1017.5
20260901140403 86 82 0.0 1.7 0.00 0.00 0.00 1 1017.6
20260901140324 86 81 0.0 1.7 0.00 0.00 0.00 1 1017.5
20260901140203 86 81 0.0 1.7 0.00 0.00 0.00 1 1017.5
20260901140103 85 81 0.0 1.7 0.00 0.00 0.00 1 1017.6
20260901140003 85 81 0.0 1.7 0.00 0.00 0.00 1 1017.6
20260901135903 85 81 0.0 1.7 0.00 0.00 0.00 1 1017.6
20260901135803 85 81 0.0 1.7 0.00 0.00 0.00 1 1017.5
20260901135703 85 81 0.0 1.7 0.00 0.00 0.00 1 1017.6
20260901135603 85 81 0.0 1.7 0.00 0.00 0.00 1 1017.5
20260901135503 85 81 0.0 0.9 0.00 0.00 0.00 1 1017.5
20260901135403 85 0 0.0 0.0 0.00 0.00 0.00 1 1017.6
20260901135305 85 0 0.0 0.0 0.00 0.00 0.00 1 1017.6
20260901135203 84 0 0.0 0.0 0.00 0.00 0.00 1 1017.5
20260901135103 84 0 0.0 0.0 0.00 0.00 0.00 1 1017.5
20260901135003 84 0 0.0 0.0 0.00 0.00 0.00 1 1017.5
20260901134903 84 0 0.0 0.0 0.00 0.00 0.00 1 1017.5
20260901134803 84 0 0.0 0.0 0.00 0.00 0.00 1 1017.5
20260901134703 83 0 0.0 0.0 0.00 0.00 0.00 1 1017.6
20260901134624 83 0 0.0 0.0 0.00 0.00 0.00 1 1017.5
20260901134503 83 0 0.0 0.0 0.00 0.00 0.00 1 1017.5
20260901134424 83 0 0.0 0.0 0.00 0.00 0.00 1 1017.5
20260901134303 83 0 0.0 0.0 0.00 0.00 0.00 1 1017.5
20260901134203 83 0 0.0 0.0 0.00 0.00 0.00 1 1017.5
20260901134103 82 0 0.0 0.0 0.00 0.00 0.00 1 1017.5
20260901134003 82 0 0.0 0.0 0.00 0.00 0.00 1 1017.4
20260901133903 82 0 0.0 0.0 0.00 0.00 0.00 1 1017.4
20260901133803 82 0 0.0 0.0 0.00 0.00 0.00 1 1017.5
20260901133704 82 0 0.0 0.0 0.00 0.00 0.00 1 1017.5
20260901133603 82 0 0.0 0.0 0.00 0.00 0.00 1 1017.4
20260901133503 82 0 0.0 0.0 0.00 0.00 0.00 1 1017.4
20260901133403 82 0 0.0 0.0 0.00 0.00 0.00 1 1017.4
20260901133303 82 0 0.0 0.0 0.00 0.00 0.00 1 1017.4
20260901133203 82 0 0.0 0.0 0.00 0.00 0.00 1 1017.3
20260901133103 82 0 0.0 0.0 0.00 0.00 0.00 1 1017.3
20260901133003 82 0 0.0 0.0 0.00 0.00 0.00 1 1017.4
20260901132903 81 0 0.0 0.0 0.00 0.00 0.00 1 1017.3
20260901132803 81 0 0.0 0.0 0.00 0.00 0.00 1 1017.4
20260901132703 81 0 0.0 0.0 0.00 0.00 0.00 1 1017.4
20260901132603 81 0 0.0 0.0 0.00 0.00 0.00 1 1017.4
20260901132503 81 0 0.0 0.0 0.00 0.00 0.00 1 1017.4
20260901132403 81 0 0.0 0.0 0.00 0.00 0.00 1 1017.4
20260901132307 81 0 0.0 0.0 0.00 0.00 0.00 1 1017.4
20260901132203 81 0 0.0 0.0 0.00 0.00 0.00 1 1017.3
20260901132103 81 0 0.0 0.0 0.00 0.00 0.00 1 1017.3
20260901132003 81 0 0.0 0.0 0.00 0.00 0.00 1 1017.3
20260901131903 80 0 0.0 0.0 0.00 0.00 0.00 1 1017.3
20260901131803 80 0 0.0 0.0 0.00 0.00 0.00 1 1017.3
20260901131704 80 0 0.0 0.0 0.00 0.00 0.00 1 1017.3
20260901131603 80 0 0.0 0.0 0.00 0.00 0.00 1 1017.3
20260901131503 80 0 0.0 0.0 0.00 0.00 0.00 1 1017.3
20260901131403 80 0 0.0 0.0 0.00 0.00 0.00 1 1017.3
20260901131303 80 0 0.0 0.0 0.00 0.00 0.00 1 1017.2
20260901131203 80 0 0.0 0.0 0.00 0.00 0.00 1 1017.3
20260901131103 80 0 0.0 0.0 0.00 0.00 0.00 1 1017.3
20260901131003 80 0 0.0 0.0 0.00 0.00 0.00 1 1017.2
20260901130903 80 0 0.0 0.0 0.00 0.00 0.00 1 1017.2
20260901130824 80 0 0.0 0.0 0.00 0.00 0.00 1 1017.2
20260901130703 80 0 0.0 0.0 0.00 0.00 0.00 1 1017.2
20260901130624 80 0 0.0 0.0 0.00 0.00 0.00 1 1017.2
20260901130503 80 0 0.0 0.0 0.00 0.00 0.00 1 1017.2
20260901130424 80 0 0.0 0.0 0.00 0.00 0.00 1 1017.2
20260901130303 80 0 0.0 0.0 0.00 0.00 0.00 1 1017.2
20260901130203 80 0 0.0 0.0 0.00 0.00 0.00 1 1017.2
20260901130124 80 0 0.0 0.0 0.00 0.00 0.00 1 1017.1
20260901130024 80 0 0.0 0.0 0.00 0.00 0.00 1 1017.1
20260901125924 80 0 0.0 0.0 0.00 0.00 0.00 1 1017.1
20260901125804 80 0 0.0 0.0 0.00 0.00 0.00 1 1017.1
20260901125704 80 0 0.0 0.0 0.00 0.00 0.00 1 1017.0
20260901125604 80 0 0.0 0.0 0.00 0.00 0.00 1 1017.1
20260901125504 79 0 0.0 0.0 0.00 0.00 0.00 1 1017.0
20260901125404 79 0 0.0 0.0 0.00 0.00 0.00 1 1017.0
20260901125308 79 0 0.0 0.0 0.00 0.00 0.00 1 1017.0
20260901125225 79 0 0.0 0.0 0.00 0.00 0.00 1 1017.0
20260901125104 79 0 0.0 0.0 0.00 0.00 0.00 1 1017.0
20260901125004 78 0 0.0 0.0 0.00 0.00 0.00 1 1017.0
20260901124904 78 0 0.0 0.0 0.00 0.00 0.00 1 1017.0
20260901124804 78 0 0.0 0.0 0.00 0.00 0.00 1 1017.0
20260901124704 78 0 0.0 0.0 0.00 0.00 0.00 1 1017.0
20260901124604 77 0 0.0 0.0 0.00 0.00 0.00 1 1017.0
20260901124505 77 0 0.0 0.0 0.00 0.00 0.00 1 1017.0
20260901124404 77 0 0.0 0.0 0.00 0.00 0.00 1 1016.9
20260901124325 77 0 0.0 0.0 0.00 0.00 0.00 1 1017.0
20260901124204 76 0 0.0 0.0 0.00 0.00 0.00 1 1017.0
20260901124104 76 0 0.0 0.0 0.00 0.00 0.00 1 1016.9
20260901124025 76 0 0.0 0.0 0.00 0.00 0.00 1 1016.9
20260901123904 76 0 0.0 0.0 0.00 0.00 0.00 1 1016.9
20260901123804 76 0 0.0 0.0 0.00 0.00 0.00 1 1016.9
20260901123704 76 0 0.0 0.0 0.00 0.00 0.00 1 1016.9
20260901123604 76 0 0.0 0.0 0.00 0.00 0.00 1 1016.9
20260901123525 76 0 0.0 0.0 0.00 0.00 0.00 1 1016.9
20260901123404 76 0 0.0 0.0 0.00 0.00 0.00 1 1016.9
20260901123304 76 0 0.0 0.0 0.00 0.00 0.00 1 1016.9
20260901123204 76 0 0.0 0.0 0.00 0.00 0.00 1 1016.9
20260901123104 76 0 0.0 0.0 0.00 0.00 0.00 1 1016.9
20260901123004 76 0 0.0 0.0 0.00 0.00 0.00 1 1016.8
20260901122904 76 0 0.0 0.0 0.00 0.00 0.00 1 1016.8
20260901122804 76 0 0.0 0.0 0.00 0.00 0.00 1 1016.8
20260901122704 76 0 0.0 0.0 0.00 0.00 0.00 1 1016.7
20260901122604 76 0 0.0 0.0 0.00 0.00 0.00 1 1016.7
20260901122504 76 0 0.0 0.0 0.00 0.00 0.00 1 1016.7
20260901122404 76 0 0.0 0.0 0.00 0.00 0.00 1 1016.7
20260901122306 76 0 0.0 0.0 0.00 0.00 0.00 1 1016.6
20260901122204 76 0 0.0 0.0 0.00 0.00 0.00 1 1016.6
20260901122104 76 0 0.0 0.0 0.00 0.00 0.00 1 1016.6
20260901122004 76 0 0.0 0.0 0.00 0.00 0.00 1 1016.6
20260901121904 76 0 0.0 0.0 0.00 0.00 0.00 1 1016.6
20260901121804 76 0 0.0 0.0 0.00 0.00 0.00 1 1016.5
20260901121704 76 0 0.0 0.0 0.00 0.00 0.00 1 1016.5
20260901121604 76 0 0.0 0.0 0.00 0.00 0.00 1 1016.6
20260901121504 76 0 0.0 0.0 0.00 0.00 0.00 1 1016.6
20260901121425 76 0 0.0 0.0 0.00 0.00 0.00 1 1016.5
20260901121304 76 0 0.0 0.0 0.00 0.00 0.00 1 1016.5
20260901121204 76 0 0.0 0.0 0.00 0.00 0.00 1 1016.6
20260901121104 76 0 0.0 0.0 0.00 0.00 0.00 1 1016.6
20260901121025 76 0 0.0 0.0 0.00 0.00 0.00 1 1016.6
20260901120925 76 0 0.0 0.0 0.00 0.00 0.00 1 1016.6
20260901120804 76 0 0.0 0.0 0.00 0.00 0.00 1 1016.5
20260901120704 76 0 0.0 0.0 0.00 0.00 0.00 1 1016.6
20260901120604 76 0 0.0 0.0 0.00 0.00 0.00 1 1016.5
20260901120504 76 0 0.0 0.0 0.00 0.00 0.00 1 1016.5
20260901120404 76 0 0.0 0.0 0.00 0.00 0.00 1 1016.5
20260901120325 76 0 0.0 0.0 0.00 0.00 0.00 1 1016.5
20260901120204 76 0 0.0 0.0 0.00 0.00 0.00 1 1016.4
20260901120104 76 0 0.0 0.0 0.00 0.00 0.00 1 1016.4
20260901120004 76 0 0.0 0.0 0.00 0.00 0.00 1 1016.4
20260901115904 76 0 0.0 0.0 0.00 0.00 0.00 1 1016.4
20260901115804 76 0 0.0 0.9 0.00 0.00 0.00 1 1016.4
20260901115704 76 0 0.0 0.9 0.00 0.00 0.00 1 1016.4
20260901115604 76 0 0.0 0.9 0.00 0.00 0.00 1 1016.4
20260901115504 76 0 0.0 0.9 0.00 0.00 0.00 1 1016.4
20260901115404 77 0 0.0 0.9 0.00 0.00 0.00 1 1016.5
20260901115306 77 0 0.0 0.9 0.00 0.00 0.00 1 1016.4
20260901115204 77 0 0.0 0.9 0.00 0.00 0.00 1 1016.4
20260901115104 77 0 0.0 0.9 0.00 0.00 0.00 1 1016.5
20260901115004 77 0 0.0 0.9 0.00 0.00 0.00 1 1016.4
20260901114904 77 0 0.0 0.9 0.00 0.00 0.00 1 1016.4
20260901114804 77 0 0.0 0.9 0.00 0.00 0.00 1 1016.4
20260901114704 77 0 0.0 0.9 0.00 0.00 0.00 1 1016.5
20260901114604 77 0 0.0 0.9 0.00 0.00 0.00 1 1016.5
20260901114504 77 0 0.0 0.9 0.00 0.00 0.00 1 1016.5
20260901114404 77 0 0.0 0.9 0.00 0.00 0.00 1 1016.5
20260901114304 77 0 0.0 0.9 0.00 0.00 0.00 1 1016.4
20260901114204 77 0 0.0 0.9 0.00 0.00 0.00 1 1016.5
20260901114104 77 0 0.0 0.9 0.00 0.00 0.00 1 1016.5
20260901114004 77 0 0.0 0.9 0.00 0.00 0.00 1 1016.5
20260901113904 77 0 0.0 0.9 0.00 0.00 0.00 1 1016.5
20260901113804 77 0 0.0 0.0 0.00 0.00 0.00 1 1016.5
20260901113725 77 0 0.0 0.0 0.00 0.00 0.00 1 1016.5
20260901113604 77 0 0.0 0.0 0.00 0.00 0.00 1 1016.5
20260901113504 77 75 0.0 0.9 0.00 0.00 0.00 1 1016.6
20260901113404 77 75 0.0 0.9 0.00 0.00 0.00 1 1016.5
20260901113304 77 75 0.0 0.9 0.00 0.00 0.00 1 1016.5
20260901113204 77 75 0.0 0.9 0.00 0.00 0.00 1 1016.6
20260901113125 77 75 0.0 0.9 0.00 0.00 0.00 1 1016.6
20260901113004 77 75 0.0 0.9 0.00 0.00 0.00 1 1016.5
20260901112904 77 75 0.0 0.9 0.00 0.00 0.00 1 1016.5
20260901112804 77 75 0.0 0.9 0.00 0.00 0.00 1 1016.5
20260901112704 77 75 0.0 0.9 0.00 0.00 0.00 1 1016.5
20260901112604 77 75 0.0 0.9 0.00 0.00 0.00 1 1016.5
20260901112525 77 75 0.0 0.9 0.00 0.00 0.00 1 1016.5
20260901112425 77 75 0.0 0.9 0.00 0.00 0.00 1 1016.5
20260901112306 77 75 0.0 0.9 0.00 0.00 0.00 1 1016.5
20260901112204 77 75 0.0 0.9 0.00 0.00 0.00 1 1016.5
20260901112104 77 75 0.0 0.9 0.00 0.00 0.00 1 1016.4
20260901112004 77 75 0.0 0.9 0.00 0.00 0.00 1 1016.4
20260901111925 77 75 0.0 0.9 0.00 0.00 0.00 1 1016.4
20260901111804 77 75 0.0 0.9 0.00 0.00 0.00 1 1016.4
20260901111704 77 75 0.0 0.9 0.00 0.00 0.00 1 1016.4
20260901111604 77 75 0.0 0.9 0.00 0.00 0.00 1 1016.4
20260901111525 77 75 0.0 0.9 0.00 0.00 0.00 1 1016.4
20260901111404 77 75 0.0 0.9 0.00 0.00 0.00 1 1016.4
20260901111304 77 75 0.0 0.9 0.00 0.00 0.00 1 1016.4
20260901111204 77 75 0.0 0.9 0.00 0.00 0.00 1 1016.4
20260901111104 77 75 0.0 0.9 0.00 0.00 0.00 1 1016.4
20260901111004 77 75 0.0 1.7 0.00 0.00 0.00 1 1016.5
20260901110904 77 75 0.0 1.7 0.00 0.00 0.00 1 1016.4
20260901110804 77 75 0.9 1.7 0.00 0.00 0.00 1 1016.5
20260901110704 78 75 0.9 1.7 0.00 0.00 0.00 1 1016.5
20260901110604 78 75 0.9 1.7 0.00 0.00 0.00 1 1016.5
20260901110504 78 75 0.9 2.6 0.00 0.00 0.00 1 1016.5
20260901110425 78 75 0.9 2.6 0.00 0.00 0.00 1 1016.4
20260901110304 78 75 0.9 2.6 0.00 0.00 0.00 1 1016.4
20260901110204 78 75 0.9 2.6 0.00 0.00 0.00 1 1016.4
20260901110104 78 75 0.9 2.6 0.00 0.00 0.00 1 1016.4
20260901110004 78 75 1.7 2.6 0.00 0.00 0.00 1 1016.4
20260901105904 78 75 1.7 2.6 0.00 0.00 0.00 1 1016.4
20260901105804 78 75 1.7 2.6 0.00 0.00 0.00 1 1016.4
20260901105704 78 75 1.7 2.6 0.00 0.00 0.00 1 1016.4
20260901105604 78 75 1.7 2.6 0.00 0.00 0.00 1 1016.4
20260901105504 78 74 1.7 2.6 0.00 0.00 0.00 1 1016.4
20260901105404 78 74 1.7 2.6 0.00 0.00 0.00 1 1016.4
20260901105305 78 74 1.7 2.6 0.00 0.00 0.00 1 1016.5
20260901105204 78 74 1.7 2.6 0.00 0.00 0.00 1 1016.4
20260901105104 78 74 1.7 2.6 0.00 0.00 0.00 1 1016.4
20260901105004 78 74 1.7 2.6 0.00 0.00 0.00 1 1016.5
20260901104904 78 73 1.7 2.6 0.00 0.00 0.00 1 1016.4
20260901104804 78 73 1.7 2.6 0.00 0.00 0.00 1 1016.4
20260901104725 78 73 1.7 2.6 0.00 0.00 0.00 1 1016.4
20260901104625 78 73 1.7 2.6 0.00 0.00 0.00 1 1016.4
20260901104525 78 73 1.7 2.6 0.00 0.00 0.00 1 1016.4
20260901104404 78 73 1.7 2.6 0.00 0.00 0.00 1 1016.4
20260901104304 78 73 1.7 2.6 0.00 0.00 0.00 1 1016.4
20260901104204 78 73 0.9 2.6 0.00 0.00 0.00 1 1016.3
20260901104104 78 73 0.9 2.6 0.00 0.00 0.00 1 1016.3
20260901104004 78 73 0.9 2.6 0.00 0.00 0.00 1 1016.3
20260901103904 78 73 1.7 2.6 0.00 0.00 0.00 1 1016.3
20260901103804 78 73 0.9 2.6 0.00 0.00 0.00 1 1016.3
20260901103725 78 73 0.9 2.6 0.00 0.00 0.00 1 1016.3
20260901103604 78 73 0.9 2.6 0.00 0.00 0.00 1 1016.3
20260901103504 78 73 0.9 2.6 0.00 0.00 0.00 1 1016.3
20260901103404 78 73 0.9 2.6 0.00 0.00 0.00 1 1016.3
20260901103325 78 73 0.9 2.6 0.00 0.00 0.00 1 1016.3
20260901103204 78 73 0.9 2.6 0.00 0.00 0.00 1 1016.3
20260901103104 78 73 0.9 2.6 0.00 0.00 0.00 1 1016.3
20260901103004 78 73 0.9 2.6 0.00 0.00 0.00 1 1016.3
20260901102904 78 72 0.9 2.6 0.00 0.00 0.00 1 1016.3
20260901102825 78 72 0.9 2.6 0.00 0.00 0.00 1 1016.3
20260901102704 78 72 0.9 2.6 0.00 0.00 0.00 1 1016.3
20260901102604 78 72 0.9 1.7 0.00 0.00 0.00 1 1016.3
20260901102525 78 72 0.9 1.7 0.00 0.00 0.00 1 1016.3
20260901102404 78 72 0.9 1.7 0.00 0.00 0.00 1 1016.3
20260901102306 78 72 0.9 1.7 0.00 0.00 0.00 1 1016.3
20260901102204 78 72 0.9 1.7 0.00 0.00 0.00 1 1016.3
20260901102104 78 72 0.9 2.6 0.00 0.00 0.00 1 1016.2
20260901102004 78 72 0.9 2.6 0.00 0.00 0.00 1 1016.3
20260901101904 78 72 0.9 2.6 0.00 0.00 0.00 1 1016.3
20260901101825 78 72 0.9 2.6 0.00 0.00 0.00 1 1016.3
20260901101704 78 72 1.7 2.6 0.00 0.00 0.00 1 1016.2
20260901101604 78 72 1.7 3.5 0.00 0.00 0.00 1 1016.3
20260901101525 78 72 0.9 3.5 0.00 0.00 0.00 1 1016.2
20260901101404 78 72 0.9 3.5 0.00 0.00 0.00 1 1016.2
20260901101304 78 72 1.7 3.5 0.00 0.00 0.00 1 1016.2
20260901101225 78 72 1.7 3.5 0.00 0.00 0.00 1 1016.2
20260901101104 78 72 1.7 3.5 0.00 0.00 0.00 1 1016.2
20260901101025 78 72 1.7 3.5 0.00 0.00 0.00 1 1016.2
20260901100904 78 71 1.7 3.5 0.00 0.00 0.00 1 1016.2
20260901100804 78 71 1.7 3.5 0.00 0.00 0.00 1 1016.2
20260901100704 78 71 1.7 3.5 0.00 0.00 0.00 1 1016.2
20260901100604 78 71 1.7 3.5 0.00 0.00 0.00 1 1016.2
20260901100504 78 71 1.7 3.5 0.00 0.00 0.00 1 1016.2
20260901100404 78 70 1.7 3.5 0.00 0.00 0.00 1 1016.2
20260901100325 78 70 1.7 3.5 0.00 0.00 0.00 1 1016.2
20260901100204 78 70 1.7 3.5 0.00 0.00 0.00 1 1016.2
20260901100104 78 70 1.7 3.5 0.00 0.00 0.00 1 1016.2
20260901100004 78 70 1.7 3.5 0.00 0.00 0.00 1 1016.1
20260901095904 78 69 1.7 3.5 0.00 0.00 0.00 1 1016.2
20260901095804 78 69 1.7 3.5 0.00 0.00 0.00 1 1016.2
20260901095704 78 68 1.7 3.5 0.00 0.00 0.00 1 1016.2
20260901095625 78 68 1.7 3.5 0.00 0.00 0.00 1 1016.1
20260901095504 78 68 1.7 3.5 0.00 0.00 0.00 1 1016.2
20260901095404 78 68 1.7 3.5 0.00 0.00 0.00 1 1016.2
20260901095306 78 67 1.7 3.5 0.00 0.00 0.00 1 1016.3
20260901095205 78 67 1.7 3.5 0.00 0.00 0.00 1 1016.2
20260901095104 78 66 1.7 3.5 0.00 0.00 0.00 1 1016.2
20260901095004 78 66 1.7 3.5 0.00 0.00 0.00 1 1016.3
20260901094904 78 65 1.7 3.5 0.00 0.00 0.00 1 1016.2
20260901094804 78 65 1.7 3.5 0.00 0.00 0.00 1 1016.2
20260901094704 78 65 1.7 3.5 0.00 0.00 0.00 1 1016.3
20260901094604 78 64 1.7 3.5 0.00 0.00 0.00 1 1016.3
20260901094504 78 64 1.7 3.5 0.00 0.00 0.00 1 1016.3
20260901094425 78 63 1.7 4.3 0.00 0.00 0.00 1 1016.3
20260901094304 78 63 2.6 4.3 0.00 0.00 0.00 1 1016.3
20260901094204 78 63 2.6 4.3 0.00 0.00 0.00 1 1016.3
20260901094104 78 62 2.6 4.3 0.00 0.00 0.00 1 1016.3
20260901094004 78 62 2.6 4.3 0.00 0.00 0.00 1 1016.3
20260901093925 78 62 2.6 4.3 0.00 0.00 0.00 1 1016.3
20260901093804 78 62 2.6 4.3 0.00 0.00 0.00 1 1016.3
20260901093704 78 61 2.6 4.3 0.00 0.00 0.00 1 1016.3
20260901093604 79 61 2.6 4.3 0.00 0.00 0.00 1 1016.3
20260901093504 79 59 2.6 4.3 0.00 0.00 0.00 1 1016.4
20260901093404 79 58 2.6 5.2 0.00 0.00 0.00 1 1016.4
20260901093304 79 58 2.6 5.2 0.00 0.00 0.00 1 1016.4
20260901093225 79 57 2.6 5.2 0.00 0.00 0.00 1 1016.4
20260901093104 79 56 2.6 5.2 0.00 0.00 0.00 1 1016.4
20260901093025 79 55 2.6 5.2 0.00 0.00 0.00 1 1016.4
20260901092904 79 54 2.6 5.2 0.00 0.00 0.00 1 1016.4
20260901092804 79 54 2.6 5.2 0.00 0.00 0.00 1 1016.4
20260901092704 79 53 1.7 5.2 0.00 0.00 0.00 1 1016.4
20260901092604 79 53 1.7 5.2 0.00 0.00 0.00 1 1016.4
20260901092504 79 53 1.7 5.2 0.00 0.00 0.00 1 1016.4
20260901092404 79 53 1.7 4.3 0.00 0.00 0.00 1 1016.4
20260901092325 79 53 1.7 4.3 0.00 0.00 0.00 1 1016.4
20260901092204 79 54 1.7 4.3 0.00 0.00 0.00 1 1016.4
20260901092104 79 55 1.7 4.3 0.00 0.00 0.00 1 1016.4
20260901092004 79 55 1.7 4.3 0.00 0.00 0.00 1 1016.4
20260901091925 79 56 1.7 4.3 0.00 0.00 0.00 1 1016.4
20260901091804 79 56 1.7 3.5 0.00 0.00 0.00 1 1016.4
20260901091704 79 56 1.7 3.5 0.00 0.00 0.00 1 1016.4
20260901091625 79 56 1.7 3.5 0.00 0.00 0.00 1 1016.4
20260901091504 79 56 1.7 3.5 0.00 0.00 0.00 1 1016.4
20260901091404 79 56 1.7 3.5 0.00 0.00 0.00 1 1016.4
20260901091304 79 55 1.7 3.5 0.00 0.00 0.00 1 1016.4
20260901091204 79 55 1.7 3.5 0.00 0.00 0.00 1 1016.4
20260901091104 79 55 1.7 3.5 0.00 0.00 0.00 1 1016.4
20260901091004 79 55 1.7 3.5 0.00 0.00 0.00 1 1016.4
20260901090904 79 55 0.9 3.5 0.00 0.00 0.00 1 1016.4
20260901090804 79 55 1.7 3.5 0.00 0.00 0.00 1 1016.4
20260901090704 79 55 1.7 3.5 0.00 0.00 0.00 1 1016.4
20260901090604 79 55 1.7 3.5 0.00 0.00 0.00 1 1016.4
20260901090504 79 55 1.7 3.5 0.00 0.00 0.00 1 1016.4
20260901090404 79 55 1.7 3.5 0.00 0.00 0.00 1 1016.4
20260901090304 80 55 0.9 3.5 0.00 0.00 0.00 1 1016.5
20260901090204 80 55 0.9 2.6 0.00 0.00 0.00 1 1016.5
20260901090104 80 55 0.9 2.6 0.00 0.00 0.00 1 1016.5
20260901090004 80 55 0.9 2.6 0.00 0.00 0.00 1 1016.5
20260901085904 80 55 0.9 2.6 0.00 0.00 0.00 1 1016.5
20260901085804 80 55 0.9 2.6 0.00 0.00 0.00 1 1016.5
20260901085725 80 55 0.9 4.3 0.00 0.00 0.00 1 1016.5
20260901085604 80 55 0.9 4.3 0.00 0.00 0.00 1 1016.5
20260901085504 80 55 0.9 4.3 0.00 0.00 0.00 1 1016.5
20260901085425 80 55 0.9 4.3 0.00 0.00 0.00 1 1016.5
20260901085306 80 55 0.9 4.3 0.00 0.00 0.00 1 1016.5
20260901085205 80 55 1.7 4.3 0.00 0.00 0.00 1 1016.5
20260901085125 80 55 1.7 4.3 0.00 0.00 0.00 1 1016.5
20260901085004 80 56 1.7 4.3 0.00 0.00 0.00 1 1016.5
20260901084904 80 56 1.7 4.3 0.00 0.00 0.00 1 1016.5
20260901084804 80 56 1.7 4.3 0.00 0.00 0.00 1 1016.5
20260901084704 80 56 1.7 4.3 0.00 0.00 0.00 1 1016.5
20260901084604 80 57 1.7 4.3 0.00 0.00 0.00 1 1016.5
20260901084504 80 57 1.7 3.5 0.00 0.00 0.00 1 1016.5
20260901084425 80 57 1.7 3.5 0.00 0.00 0.00 1 1016.5
20260901084325 80 57 1.7 3.5 0.00 0.00 0.00 1 1016.5
20260901084204 80 57 1.7 3.5 0.00 0.00 0.00 1 1016.5
20260901084104 80 57 1.7 3.5 0.00 0.00 0.00 1 1016.5
20260901084004 80 57 1.7 2.6 0.00 0.00 0.00 1 1016.4
20260901083925 80 57 1.7 2.6 0.00 0.00 0.00 1 1016.5
20260901083804 80 57 1.7 2.6 0.00 0.00 0.00 1 1016.5
20260901083704 80 57 1.7 2.6 0.00 0.00 0.00 1 1016.5
20260901083604 80 57 1.7 2.6 0.00 0.00 0.00 1 1016.5
20260901083525 80 57 0.9 2.6 0.00 0.00 0.00 1 1016.5
20260901083404 80 57 0.9 2.6 0.00 0.00 0.00 1 1016.5
20260901083304 80 57 0.9 2.6 0.00 0.00 0.00 1 1016.5
20260901083204 80 57 0.9 2.6 0.00 0.00 0.00 1 1016.5
20260901083104 80 57 0.9 2.6 0.00 0.00 0.00 1 1016.5
20260901083025 80 57 0.9 2.6 0.00 0.00 0.00 1 1016.5
20260901082904 80 57 0.9 2.6 0.00 0.00 0.00 1 1016.5
20260901082804 80 57 0.9 2.6 0.00 0.00 0.00 1 1016.5
20260901082704 81 57 0.9 3.5 0.00 0.00 0.00 1 1016.5
20260901082625 81 57 0.9 3.5 0.00 0.00 0.00 1 1016.5
20260901082504 81 57 0.9 3.5 0.00 0.00 0.00 1 1016.5
20260901082404 81 56 0.9 3.5 0.00 0.00 0.00 1 1016.5
20260901082306 81 56 0.9 3.5 0.00 0.00 0.00 1 1016.5
20260901082204 81 56 0.9 3.5 0.00 0.00 0.00 1 1016.5
20260901082104 81 56 0.9 3.5 0.00 0.00 0.00 1 1016.5
20260901082004 81 56 0.9 3.5 0.00 0.00 0.00 1 1016.4
20260901081904 81 56 0.9 3.5 0.00 0.00 0.00 1 1016.5
20260901081804 81 56 0.9 3.5 0.00 0.00 0.00 1 1016.4
20260901081704 81 56 0.9 2.6 0.00 0.00 0.00 1 1016.4
20260901081604 81 56 0.9 2.6 0.00 0.00 0.00 1 1016.4
20260901081525 81 56 0.9 2.6 0.00 0.00 0.00 1 1016.4
20260901081425 81 56 0.9 2.6 0.00 0.00 0.00 1 1016.4
20260901081304 81 56 0.9 2.6 0.00 0.00 0.00 1 1016.4
20260901081204 81 56 1.7 3.5 0.00 0.00 0.00 1 1016.3
20260901081104 81 56 1.7 3.5 0.00 0.00 0.00 1 1016.4
20260901081025 81 56 1.7 3.5 0.00 0.00 0.00 1 1016.4
20260901080904 81 56 0.9 3.5 0.00 0.00 0.00 1 1016.3
20260901080804 81 56 0.9 3.5 0.00 0.00 0.00 1 1016.3
20260901080704 81 56 0.9 3.5 0.00 0.00 0.00 1 1016.4
20260901080625 81 55 0.9 3.5 0.00 0.00 0.00 1 1016.4
20260901080504 81 55 0.9 3.5 0.00 0.00 0.00 1 1016.3
20260901080425 81 55 0.9 3.5 0.00 0.00 0.00 1 1016.4
20260901080304 81 55 0.9 3.5 0.00 0.00 0.00 1 1016.4
20260901080204 81 55 0.9 2.6 0.00 0.00 0.00 1 1016.4
20260901080104 81 55 0.9 2.6 0.00 0.00 0.00 1 1016.4
20260901080004 81 55 0.9 2.6 0.00 0.00 0.00 1 1016.4
20260901075904 81 55 0.9 2.6 0.00 0.00 0.00 1 1016.4
20260901075804 81 55 0.9 2.6 0.00 0.00 0.00 1 1016.4
20260901075704 81 54 0.9 2.6 0.00 0.00 0.00 1 1016.4
20260901075625 81 54 0.9 2.6 0.00 0.00 0.00 1 1016.4
20260901075525 81 54 0.9 2.6 0.00 0.00 0.00 1 1016.4
20260901075404 81 54 0.9 2.6 0.00 0.00 0.00 1 1016.4
20260901075325 81 54 0.9 2.6 0.00 0.00 0.00 1 1016.5
20260901075206 81 54 0.9 2.6 0.00 0.00 0.00 1 1016.4
20260901075104 81 54 0.9 2.6 0.00 0.00 0.00 1 1016.4
20260901075004 81 54 0.9 2.6 0.00 0.00 0.00 1 1016.4
20260901074904 81 54 0.9 2.6 0.00 0.00 0.00 1 1016.3
20260901074804 81 53 0.9 2.6 0.00 0.00 0.00 1 1016.3
20260901074704 81 53 0.9 2.6 0.00 0.00 0.00 1 1016.3
20260901074604 81 53 0.9 2.6 0.00 0.00 0.00 1 1016.4
20260901074504 81 53 0.9 2.6 0.00 0.00 0.00 1 1016.3
20260901074404 81 53 0.9 2.6 0.00 0.00 0.00 1 1016.3
20260901074325 81 53 0.9 2.6 0.00 0.00 0.00 1 1016.3
20260901074204 81 53 0.9 2.6 0.00 0.00 0.00 1 1016.3
20260901074104 81 53 0.9 2.6 0.00 0.00 0.00 1 1016.3
20260901074004 81 52 0.9 2.6 0.00 0.00 0.00 1 1016.3
20260901073904 81 52 0.9 2.6 0.00 0.00 0.00 1 1016.3
20260901073825 81 52 0.9 2.6 0.00 0.00 0.00 1 1016.3
20260901073704 81 52 0.9 2.6 0.00 0.00 0.00 1 1016.3
20260901073604 81 51 0.9 2.6 0.00 0.00 0.00 1 1016.3
20260901073525 81 51 0.9 2.6 0.00 0.00 0.00 1 1016.3
20260901073404 82 51 0.9 2.6 0.00 0.00 0.00 1 1016.3
20260901073304 82 51 0.9 2.6 0.00 0.00 0.00 1 1016.3
20260901073204 82 51 0.0 2.6 0.00 0.00 0.00 1 1016.4
20260901073104 82 51 0.0 2.6 0.00 0.00 0.00 1 1016.3
20260901073004 82 51 0.0 1.7 0.00 0.00 0.00 1 1016.4
20260901072925 82 51 0.9 1.7 0.00 0.00 0.00 1 1016.4
20260901072804 82 51 0.9 1.7 0.00 0.00 0.00 1 1016.4
20260901072704 82 51 0.9 3.5 0.00 0.00 0.00 1 1016.4
20260901072604 82 51 0.9 3.5 0.00 0.00 0.00 1 1016.4
20260901072504 82 51 0.9 3.5 0.00 0.00 0.00 1 1016.4
20260901072404 82 51 0.9 3.5 0.00 0.00 0.00 1 1016.4
20260901072308 82 51 0.9 3.5 0.00 0.00 0.00 1 1016.4
20260901072204 82 51 0.9 3.5 0.00 0.00 0.00 1 1016.4
20260901072104 82 51 0.9 3.5 0.00 0.00 0.00 1 1016.4
20260901072004 82 51 0.9 3.5 0.00 0.00 0.00 1 1016.5
20260901071904 82 51 0.9 3.5 0.00 0.00 0.00 1 1016.5
20260901071804 82 51 0.9 3.5 0.00 0.00 0.00 1 1016.4
20260901071704 82 51 0.9 3.5 0.00 0.00 0.00 1 1016.5
20260901071604 82 51 0.9 3.5 0.00 0.00 0.00 1 1016.5
20260901071504 82 51 0.9 2.6 0.00 0.00 0.00 1 1016.5
20260901071425 82 51 0.9 2.6 0.00 0.00 0.00 1 1016.5
20260901071304 82 51 0.9 2.6 0.00 0.00 0.00 1 1016.5
20260901071204 82 50 0.9 2.6 0.00 0.00 0.00 1 1016.5
20260901071104 82 50 0.9 2.6 0.00 0.00 0.00 1 1016.5
20260901071004 82 50 0.9 2.6 0.00 0.00 0.00 1 1016.5
20260901070904 82 50 0.9 2.6 0.00 0.00 0.00 1 1016.5
20260901070825 82 50 0.9 2.6 0.00 0.00 0.00 1 1016.4
20260901070725 82 50 0.9 2.6 0.00 0.00 0.00 1 1016.4
20260901070604 82 50 0.9 2.6 0.00 0.00 0.00 1 1016.5
20260901070506 82 50 0.9 2.6 0.00 0.00 0.00 1 1016.5
20260901070425 82 50 0.9 2.6 0.00 0.00 0.00 1 1016.5
20260901070304 82 50 0.9 2.6 0.00 0.00 0.00 1 1016.5
20260901070225 82 50 0.9 2.6 0.00 0.00 0.00 1 1016.5
20260901070104 82 50 0.9 3.5 0.00 0.00 0.00 1 1016.4
20260901070004 82 50 0.9 3.5 0.00 0.00 0.00 1 1016.4
20260901065904 82 50 0.9 3.5 0.00 0.00 0.00 1 1016.3
20260901065804 82 50 0.9 3.5 0.00 0.00 0.00 1 1016.4
20260901065704 82 50 1.7 3.5 0.00 0.00 0.00 1 1016.3
20260901065604 82 50 1.7 3.5 0.00 0.00 0.00 1 1016.4
20260901065504 82 50 1.7 3.5 0.00 0.00 0.00 1 1016.3
20260901065404 82 50 1.7 3.5 0.00 0.00 0.00 1 1016.4
20260901065305 82 50 1.7 3.5 0.00 0.00 0.00 1 1016.4
20260901065204 82 50 1.7 3.5 0.00 0.00 0.00 1 1016.4
20260901065104 82 50 1.7 3.5 0.00 0.00 0.00 1 1016.4
20260901065004 83 49 1.7 3.5 0.00 0.00 0.00 1 1016.4
20260901064904 83 49 1.7 3.5 0.00 0.00 0.00 1 1016.4
20260901064804 83 49 1.7 3.5 0.00 0.00 0.00 1 1016.3
20260901064704 83 49 1.7 3.5 0.00 0.00 0.00 1 1016.3
20260901064604 83 49 1.7 3.5 0.00 0.00 0.00 1 1016.3
20260901064504 83 49 1.7 4.3 0.00 0.00 0.00 1 1016.3
20260901064425 83 49 1.7 4.3 0.00 0.00 0.00 1 1016.3
20260901064304 83 49 1.7 4.3 0.00 0.00 0.00 1 1016.3
20260901064204 83 49 1.7 4.3 0.00 0.00 0.00 1 1016.3
20260901064125 83 49 1.7 4.3 0.00 0.00 0.00 1 1016.3
20260901064004 83 48 1.7 4.3 0.00 0.00 0.00 1 1016.3
20260901063904 83 48 1.7 4.3 0.00 0.00 0.00 1 1016.3
20260901063804 83 47 1.7 5.2 0.00 0.00 0.00 1 1016.3
20260901063704 83 47 1.7 5.2 0.00 0.00 0.00 1 1016.3
20260901063625 83 47 1.7 5.2 0.00 0.00 0.00 1 1016.3
20260901063504 83 46 1.7 5.2 0.00 0.00 0.00 1 1016.2
20260901063425 83 45 2.6 5.2 0.00 0.00 0.00 1 1016.2
20260901063304 83 41 2.6 6.1 0.00 0.00 0.00 1 1016.3
20260901063204 83 41 2.6 6.1 0.00 0.00 0.00 1 1016.3
20260901063125 83 41 2.6 6.1 0.00 0.00 0.00 1 1016.3
20260901063004 83 40 2.6 6.1 0.00 0.00 0.00 1 1016.2
20260901062904 83 40 2.6 6.1 0.00 0.00 0.00 1 1016.3
20260901062804 83 39 2.6 6.1 0.00 0.00 0.00 1 1016.2
20260901062704 83 39 2.6 6.1 0.00 0.00 0.00 1 1016.3
20260901062604 83 39 2.6 6.1 0.00 0.00 0.00 1 1016.2
20260901062504 83 39 2.6 6.1 0.00 0.00 0.00 1 1016.3
20260901062404 83 41 2.6 5.2 0.00 0.00 0.00 1 1016.2
20260901062309 83 41 2.6 6.1 0.00 0.00 0.00 1 1016.3
20260901062204 83 42 2.6 6.1 0.00 0.00 0.00 1 1016.3
20260901062104 83 42 2.6 6.1 0.00 0.00 0.00 1 1016.2
20260901062004 83 41 2.6 6.1 0.00 0.00 0.00 1 1016.3
20260901061904 84 40 2.6 6.1 0.00 0.00 0.00 1 1016.3
20260901061804 84 38 2.6 8.7 0.00 0.00 0.00 1 1016.2
20260901061704 84 37 2.6 8.7 0.00 0.00 0.00 1 1016.2
20260901061604 84 37 2.6 8.7 0.00 0.00 0.00 1 1016.2
20260901061525 84 37 2.6 8.7 0.00 0.00 0.00 1 1016.2
20260901061404 84 38 2.6 8.7 0.00 0.00 0.00 1 1016.2
20260901061304 84 38 2.6 8.7 0.00 0.00 0.00 1 1016.1
20260901061204 84 37 2.6 8.7 0.00 0.00 0.00 1 1016.2
20260901061125 84 37 2.6 8.7 0.00 0.00 0.00 1 1016.2
20260901061004 84 39 2.6 8.7 0.00 0.00 0.00 1 1016.2
20260901060904 84 39 2.6 8.7 0.00 0.00 0.00 1 1016.2
20260901060804 84 39 2.6 6.1 0.00 0.00 0.00 1 1016.2
20260901060704 84 41 2.6 6.1 0.00 0.00 0.00 1 1016.2
20260901060626 84 41 2.6 6.1 0.00 0.00 0.00 1 1016.1
20260901060525 84 42 2.6 6.1 0.00 0.00 0.00 1 1016.1
20260901060404 84 40 2.6 7.8 0.00 0.00 0.00 1 1016.1
20260901060304 84 40 3.5 10.4 0.00 0.00 0.00 1 1016.1
20260901060204 84 40 3.5 10.4 0.00 0.00 0.00 1 1016.1
20260901060104 84 40 3.5 10.4 0.00 0.00 0.00 1 1016.2
20260901060004 84 40 3.5 10.4 0.00 0.00 0.00 1 1016.1
20260901055904 84 40 3.5 10.4 0.00 0.00 0.00 1 1016.1
20260901055804 84 42 4.3 10.4 0.00 0.00 0.00 1 1016.1
20260901055704 84 42 4.3 10.4 0.00 0.00 0.00 1 1016.2
20260901055604 84 41 4.3 10.4 0.00 0.00 0.00 1 1016.1
20260901055525 84 42 4.3 10.4 0.00 0.00 0.00 1 1016.1
20260901055425 84 42 4.3 10.4 0.00 0.00 0.00 1 1016.1
20260901055306 84 43 4.3 8.7 0.00 0.00 0.00 1 1016.1
20260901055204 84 43 4.3 8.7 0.00 0.00 0.00 1 1016.1
20260901055104 84 45 4.3 8.7 0.00 0.00 0.00 1 1016.1
20260901055004 84 45 4.3 8.7 0.00 0.00 0.00 1 1016.0
20260901054904 84 48 4.3 8.7 0.00 0.00 0.00 1 1016.1
20260901054804 84 48 3.5 8.7 0.00 0.00 0.00 1 1016.0
20260901054704 84 49 3.5 8.7 0.00 0.00 0.00 1 1016.0
20260901054625 84 50 3.5 8.7 0.00 0.00 0.00 1 1016.0
20260901054504 84 48 3.5 7.8 0.00 0.00 0.00 1 1016.1
20260901054404 84 44 2.6 7.8 0.00 0.00 0.00 1 1016.1
20260901054325 84 41 2.6 7.8 0.00 0.00 0.00 1 1016.1
20260901054204 84 31 2.6 6.1 0.00 0.00 0.00 1 1016.1
20260901054104 84 20 2.6 6.1 0.00 0.00 0.00 1 1016.1
20260901054004 84 10 2.6 6.1 0.00 0.00 0.00 1 1016.0
20260901053904 84 360 2.6 6.1 0.00 0.00 0.00 1 1016.0
20260901053804 84 360 2.6 6.1 0.00 0.00 0.00 1 1016.1
20260901053704 84 357 2.6 6.1 0.00 0.00 0.00 1 1016.0
20260901053604 84 353 2.6 6.1 0.00 0.00 0.00 1 1016.0
20260901053504 84 1 2.6 6.1 0.00 0.00 0.00 1 1016.0
20260901053404 84 360 2.6 6.1 0.00 0.00 0.00 1 1016.1
20260901053304 84 356 2.6 6.1 0.00 0.00 0.00 1 1016.1
20260901053204 84 354 2.6 6.1 0.00 0.00 0.00 1 1016.0
20260901053125 84 355 2.6 6.1 0.00 0.00 0.00 1 1016.0
20260901053004 84 352 2.6 6.1 0.00 0.00 0.00 1 1016.0
20260901052904 84 346 1.7 6.1 0.00 0.00 0.00 1 1016.0
20260901052804 84 345 1.7 6.1 0.00 0.00 0.00 1 1016.0
20260901052704 84 338 1.7 6.1 0.00 0.00 0.00 1 1016.0
20260901052604 84 331 1.7 6.1 0.00 0.00 0.00 1 1016.0
20260901052504 85 317 1.7 6.1 0.00 0.00 0.00 1 1016.0
20260901052425 85 319 1.7 6.1 0.00 0.00 0.00 2 1016.0
20260901052307 85 325 1.7 6.1 0.00 0.00 0.00 3 1016.0
20260901052204 85 331 1.7 6.1 0.00 0.00 0.00 3 1016.1
20260901052125 85 334 2.6 6.1 0.00 0.00 0.00 3 1016.1
20260901052004 85 338 2.6 6.1 0.00 0.00 0.00 4 1016.1
20260901051904 85 344 2.6 6.1 0.00 0.00 0.00 5 1016.0
20260901051804 85 343 2.6 7.0 0.00 0.00 0.00 5 1016.0
20260901051705 85 345 2.6 7.0 0.00 0.00 0.00 6 1016.0
20260901051604 85 351 2.6 7.0 0.00 0.00 0.00 6 1016.0
20260901051525 85 356 2.6 7.0 0.00 0.00 0.00 7 1015.9
20260901051404 85 5 2.6 7.0 0.00 0.00 0.00 7 1015.9
20260901051304 85 8 2.6 7.0 0.00 0.00 0.00 8 1015.9
20260901051204 85 9 2.6 7.0 0.00 0.00 0.00 8 1015.8
20260901051104 85 9 2.6 7.0 0.00 0.00 0.00 8 1015.8
20260901051004 85 12 2.6 7.0 0.00 0.00 0.00 9 1015.8
20260901050925 85 13 2.6 7.0 0.00 0.00 0.00 9 1015.9
20260901050804 85 10 2.6 6.1 0.00 0.00 0.00 10 1015.8
20260901050704 85 6 2.6 6.1 0.00 0.00 0.00 10 1015.8
20260901050604 85 358 2.6 7.0 0.00 0.00 0.00 11 1015.8
20260901050504 85 353 2.6 7.8 0.00 0.00 0.00 11 1015.7
20260901050425 85 349 2.6 7.8 0.00 0.00 0.00 11 1015.8
20260901050304 85 354 2.6 7.8 0.00 0.00 0.00 12 1015.7
20260901050204 85 1 2.6 7.8 0.00 0.00 0.00 13 1015.7
20260901050104 85 7 2.6 7.8 0.00 0.00 0.00 13 1015.7
20260901050004 85 5 3.5 7.8 0.00 0.00 0.00 13 1015.7
20260901045925 85 9 3.5 9.6 0.00 0.00 0.00 13 1015.7
20260901045804 85 14 3.5 9.6 0.00 0.00 0.00 14 1015.7
20260901045704 85 19 3.5 9.6 0.00 0.00 0.00 14 1015.7
20260901045604 85 25 3.5 9.6 0.00 0.00 0.00 14 1015.7
20260901045504 85 31 2.6 9.6 0.00 0.00 0.00 14 1015.7
20260901045404 85 34 2.6 9.6 0.00 0.00 0.00 14 1015.7
20260901045306 85 31 2.6 9.6 0.00 0.00 0.00 15 1015.7
20260901045204 85 27 2.6 9.6 0.00 0.00 0.00 15 1015.6
20260901045104 85 19 2.6 9.6 0.00 0.00 0.00 15 1015.6
20260901045004 86 17 2.6 9.6 0.00 0.00 0.00 15 1015.6
20260901044904 86 15 2.6 6.1 0.00 0.00 0.00 16 1015.6
20260901044804 86 21 2.6 6.1 0.00 0.00 0.00 17 1015.6
20260901044704 86 18 2.6 6.1 0.00 0.00 0.00 17 1015.5
20260901044604 86 11 2.6 6.1 0.00 0.00 0.00 17 1015.5
20260901044506 86 7 2.6 6.1 0.00 0.00 0.00 18 1015.6
20260901044404 86 1 2.6 6.1 0.00 0.00 0.00 18 1015.5
20260901044304 86 353 2.6 6.1 0.00 0.00 0.00 19 1015.5
20260901044204 86 347 2.6 6.1 0.00 0.00 0.00 19 1015.6
20260901044104 86 348 2.6 6.1 0.00 0.00 0.00 20 1015.5
20260901044004 86 356 2.6 6.1 0.00 0.00 0.00 20 1015.5
20260901043904 86 357 2.6 6.1 0.00 0.00 0.00 20 1015.5
20260901043804 86 351 2.6 6.1 0.00 0.00 0.00 21 1015.5
20260901043704 86 347 2.6 6.1 0.00 0.00 0.00 21 1015.5
20260901043604 86 348 2.6 6.1 0.00 0.00 0.00 21 1015.5
20260901043525 86 347 2.6 6.1 0.00 0.00 0.00 21 1015.6
20260901043404 86 341 2.6 6.1 0.00 0.00 0.00 22 1015.5
20260901043304 86 342 2.6 6.1 0.00 0.00 0.00 22 1015.5
20260901043204 86 343 2.6 6.1 0.00 0.00 0.00 22 1015.6
20260901043125 86 344 2.6 6.1 0.00 0.00 0.00 23 1015.6
20260901043004 86 339 2.6 6.1 0.00 0.00 0.00 23 1015.6
20260901042904 86 332 2.6 6.1 0.00 0.00 0.00 23 1015.6
20260901042804 86 330 2.6 6.1 0.00 0.00 0.00 24 1015.5
20260901042704 86 329 3.5 6.1 0.00 0.00 0.00 24 1015.5
20260901042604 86 329 3.5 6.1 0.00 0.00 0.00 24 1015.5
20260901042504 86 331 3.5 6.1 0.00 0.00 0.00 24 1015.5
20260901042404 86 331 3.5 7.0 0.00 0.00 0.00 25 1015.5
20260901042306 86 328 3.5 9.6 0.00 0.00 0.00 25 1015.5
20260901042204 86 325 3.5 9.6 0.00 0.00 0.00 25 1015.5
20260901042125 86 327 3.5 9.6 0.00 0.00 0.00 25 1015.5
20260901042004 86 321 3.5 9.6 0.00 0.00 0.00 26 1015.4
20260901041904 86 323 3.5 9.6 0.00 0.00 0.00 26 1015.4
20260901041804 86 323 3.5 9.6 0.00 0.00 0.00 27 1015.4
20260901041704 86 322 3.5 9.6 0.00 0.00 0.00 27 1015.3
20260901041625 86 323 3.5 9.6 0.00 0.00 0.00 27 1015.3
20260901041504 86 316 3.5 9.6 0.00 0.00 0.00 27 1015.4
20260901041404 86 315 3.5 9.6 0.00 0.00 0.00 28 1015.4
20260901041304 86 315 2.6 7.0 0.00 0.00 0.00 28 1015.4
20260901041206 86 314 3.5 8.7 0.00 0.00 0.00 28 1015.4
20260901041104 86 310 3.5 8.7 0.00 0.00 0.00 29 1015.4
20260901041025 86 310 3.5 8.7 0.00 0.00 0.00 29 1015.4
20260901040904 86 309 3.5 8.7 0.00 0.00 0.00 29 1015.4
20260901040804 86 304 3.5 8.7 0.00 0.00 0.00 29 1015.4
20260901040704 86 303 3.5 8.7 0.00 0.00 0.00 30 1015.4
20260901040604 86 299 3.5 8.7 0.00 0.00 0.00 30 1015.4
20260901040525 86 300 3.5 8.7 0.00 0.00 0.00 31 1015.4
20260901040404 87 299 3.5 8.7 0.00 0.00 0.00 31 1015.5
20260901040304 87 302 3.5 8.7 0.00 0.00 0.00 31 1015.4
20260901040204 87 306 3.5 7.8 0.00 0.00 0.00 32 1015.5
20260901040125 87 308 3.5 7.8 0.00 0.00 0.00 32 1015.4
20260901040004 87 311 3.5 7.8 0.00 0.00 0.00 32 1015.5
20260901035904 87 308 3.5 7.0 0.00 0.00 0.00 33 1015.5
20260901035804 87 311 3.5 7.0 0.00 0.00 0.00 33 1015.4
20260901035704 87 312 3.5 7.0 0.00 0.00 0.00 33 1015.5
20260901035604 87 316 3.5 7.0 0.00 0.00 0.00 33 1015.5
20260901035504 87 316 3.5 7.0 0.00 0.00 0.00 34 1015.5
20260901035425 87 317 3.5 7.0 0.00 0.00 0.00 34 1015.4
20260901035306 87 318 3.5 7.0 0.00 0.00 0.00 35 1015.4
20260901035204 87 316 3.5 7.0 0.00 0.00 0.00 35 1015.4
20260901035104 87 314 3.5 7.0 0.00 0.00 0.00 35 1015.4
20260901035004 87 319 3.5 7.0 0.00 0.00 0.00 36 1015.4
20260901034904 87 320 3.5 7.0 0.00 0.00 0.00 36 1015.3
20260901034804 87 319 3.5 7.0 0.00 0.00 0.00 36 1015.4
20260901034704 87 319 3.5 7.0 0.00 0.00 0.00 37 1015.4
20260901034604 87 318 3.5 7.0 0.00 0.00 0.00 37 1015.4
20260901034525 87 319 3.5 7.8 0.00 0.00 0.00 37 1015.4
20260901034404 87 322 3.5 7.8 0.00 0.00 0.00 38 1015.4
20260901034325 87 320 3.5 7.8 0.00 0.00 0.00 38 1015.3
20260901034205 87 322 3.5 7.8 0.00 0.00 0.00 38 1015.4
20260901034104 87 322 3.5 7.8 0.00 0.00 0.00 39 1015.4
20260901034004 87 320 2.6 7.8 0.00 0.00 0.00 39 1015.4
20260901033904 87 322 2.6 7.8 0.00 0.00 0.00 39 1015.4
20260901033804 87 324 2.6 7.8 0.00 0.00 0.00 40 1015.4
20260901033704 87 323 2.6 7.8 0.00 0.00 0.00 40 1015.4
20260901033604 87 323 2.6 7.8 0.00 0.00 0.00 40 1015.4
20260901033525 87 323 2.6 7.8 0.00 0.00 0.00 40 1015.4
20260901033404 87 320 2.6 7.8 0.00 0.00 0.00 41 1015.5
20260901033304 87 321 2.6 7.8 0.00 0.00 0.00 41 1015.4
20260901033204 87 320 2.6 7.8 0.00 0.00 0.00 41 1015.4
20260901033104 87 318 2.6 7.8 0.00 0.00 0.00 42 1015.4
20260901033025 87 319 3.5 7.8 0.00 0.00 0.00 42 1015.4
20260901032925 88 316 3.5 7.8 0.00 0.00 0.00 42 1015.4
20260901032804 88 309 2.6 7.8 0.00 0.00 0.00 42 1015.4
20260901032704 88 309 3.5 7.8 0.00 0.00 0.00 42 1015.4
20260901032604 88 313 3.5 7.8 0.00 0.00 0.00 43 1015.4
20260901032504 88 311 3.5 7.8 0.00 0.00 0.00 43 1015.4
20260901032404 88 314 3.5 8.7 0.00 0.00 0.00 43 1015.4
20260901032325 88 314 3.5 8.7 0.00 0.00 0.00 43 1015.4
20260901032204 88 309 3.5 8.7 0.00 0.00 0.00 44 1015.4
20260901032104 88 310 3.5 8.7 0.00 0.00 0.00 44 1015.4
20260901032004 88 312 2.6 8.7 0.00 0.00 0.00 44 1015.3
20260901031925 88 318 3.5 8.7 0.00 0.00 0.00 44 1015.3
20260901031804 88 325 3.5 8.7 0.00 0.00 0.00 45 1015.3
20260901031725 88 328 2.6 8.7 0.00 0.00 0.00 45 1015.3
20260901031604 88 331 2.6 8.7 0.00 0.00 0.00 45 1015.3
20260901031504 88 332 2.6 8.7 0.00 0.00 0.00 45 1015.3
20260901031425 88 327 2.6 7.8 0.00 0.00 0.00 46 1015.3
20260901031304 88 334 2.6 7.0 0.00 0.00 0.00 46 1015.3
20260901031204 88 336 2.6 7.0 0.00 0.00 0.00 46 1015.2
20260901031104 88 335 2.6 7.0 0.00 0.00 0.00 46 1015.2
20260901031004 88 330 2.6 7.0 0.00 0.00 0.00 46 1015.3
20260901030904 88 326 2.6 7.0 0.00 0.00 0.00 47 1015.2
20260901030804 88 323 2.6 7.0 0.00 0.00 0.00 47 1015.2
20260901030725 88 319 2.6 7.0 0.00 0.00 0.00 47 1015.2
20260901030604 88 315 2.6 7.0 0.00 0.00 0.00 47 1015.1
20260901030506 88 317 2.6 7.0 0.00 0.00 0.00 47 1015.1
20260901030404 88 319 3.5 7.0 0.00 0.00 0.00 47 1015.1
20260901030304 88 316 3.5 7.0 0.00 0.00 0.00 48 1015.0
20260901030204 88 312 3.5 7.0 0.00 0.00 0.00 48 1015.1
20260901030125 88 311 3.5 7.8 0.00 0.00 0.00 48 1015.1
20260901030004 88 312 3.5 7.8 0.00 0.00 0.00 48 1015.0
20260901025904 88 309 3.5 7.8 0.00 0.00 0.00 48 1015.0
20260901025804 88 307 3.5 7.8 0.00 0.00 0.00 48 1014.9
20260901025704 88 305 2.6 7.8 0.00 0.00 0.00 48 1015.0
20260901025604 88 303 2.6 7.8 0.00 0.00 0.00 48 1015.0
20260901025504 88 303 2.6 7.8 0.00 0.00 0.00 48 1014.9
20260901025404 88 302 2.6 7.8 0.00 0.00 0.00 48 1014.9
20260901025306 88 303 2.6 7.8 0.00 0.00 0.00 48 1014.9
20260901025204 88 306 2.6 7.8 0.00 0.00 0.00 48 1014.9
20260901025104 88 307 2.6 7.0 0.00 0.00 0.00 48 1014.9
20260901025004 88 303 1.7 7.0 0.00 0.00 0.00 48 1014.9
20260901024904 88 301 1.7 7.0 0.00 0.00 0.00 48 1014.9
20260901024825 88 300 1.7 7.0 0.00 0.00 0.00 48 1014.9
20260901024725 88 298 1.7 7.0 0.00 0.00 0.00 48 1014.9
20260901024604 88 296 2.6 7.0 0.00 0.00 0.00 48 1014.9
20260901024525 88 294 1.7 5.2 0.00 0.00 0.00 48 1014.8
20260901024404 88 286 1.7 5.2 0.00 0.00 0.00 48 1014.8
20260901024304 88 283 1.7 5.2 0.00 0.00 0.00 48 1014.7
20260901024204 88 277 1.7 5.2 0.00 0.00 0.00 47 1014.7
20260901024128 88 275 1.7 4.3 0.00 0.00 0.00 47 1014.7
20260901024004 88 270 1.7 4.3 0.00 0.00 0.00 47 1014.7
20260901023907 88 268 1.7 4.3 0.00 0.00 0.00 47 1014.7
20260901023804 88 266 1.7 4.3 0.00 0.00 0.00 47 1014.7
20260901023704 88 263 1.7 4.3 0.00 0.00 0.00 47 1014.6
20260901023604 88 261 1.7 4.3 0.00 0.00 0.00 47 1014.6
20260901023525 88 260 1.7 4.3 0.00 0.00 0.00 47 1014.6
20260901023404 88 257 1.7 4.3 0.00 0.00 0.00 46 1014.6
20260901023304 88 255 1.7 4.3 0.00 0.00 0.00 46 1014.5
20260901023204 88 253 1.7 4.3 0.00 0.00 0.00 46 1014.5
20260901023104 88 251 1.7 4.3 0.00 0.00 0.00 46 1014.5
20260901023004 88 250 1.7 4.3 0.00 0.00 0.00 46 1014.5
20260901022904 89 249 1.7 4.3 0.00 0.00 0.00 46 1014.5
20260901022825 89 249 1.7 4.3 0.00 0.00 0.00 46 1014.4
20260901022725 89 249 1.7 4.3 0.00 0.00 0.00 45 1014.4
20260901022604 89 249 1.7 4.3 0.00 0.00 0.00 45 1014.4
20260901022504 89 249 1.7 4.3 0.00 0.00 0.00 45 1014.3
20260901022404 89 248 1.7 3.5 0.00 0.00 0.00 45 1014.3
20260901022325 89 248 0.9 3.5 0.00 0.00 0.00 45 1014.3
20260901022206 89 248 0.9 3.5 0.00 0.00 0.00 45 1014.3
20260901022104 89 248 0.9 3.5 0.00 0.00 0.00 44 1014.3
20260901022004 89 248 0.9 3.5 0.00 0.00 0.00 44 1014.3
20260901021904 89 248 0.9 3.5 0.00 0.00 0.00 44 1014.2
20260901021804 89 248 0.9 3.5 0.00 0.00 0.00 44 1014.2
20260901021725 89 248 0.9 3.5 0.00 0.00 0.00 44 1014.2
20260901021604 89 248 0.9 3.5 0.00 0.00 0.00 44 1014.2
20260901021504 89 248 0.9 3.5 0.00 0.00 0.00 44 1014.3
20260901021404 89 248 0.9 3.5 0.00 0.00 0.00 44 1014.2
20260901021304 89 247 0.9 3.5 0.00 0.00 0.00 44 1014.2
20260901021204 89 247 1.7 3.5 0.00 0.00 0.00 44 1014.2
20260901021104 89 247 1.7 3.5 0.00 0.00 0.00 44 1014.2
20260901021004 89 247 0.9 3.5 0.00 0.00 0.00 44 1014.1
20260901020904 90 246 0.9 3.5 0.00 0.00 0.00 44 1014.1
20260901020804 90 246 0.9 3.5 0.00 0.00 0.00 44 1014.1
20260901020704 90 246 0.9 3.5 0.00 0.00 0.00 43 1014.1
20260901020605 90 245 0.9 3.5 0.00 0.00 0.00 43 1014.1
20260901020504 90 245 0.9 2.6 0.00 0.00 0.00 43 1014.0
20260901020404 90 245 0.9 3.5 0.00 0.00 0.00 43 1014.1
20260901020304 90 245 0.9 3.5 0.00 0.00 0.00 43 1014.1
20260901020204 90 245 0.9 3.5 0.00 0.00 0.00 43 1014.0
20260901020104 90 245 0.9 3.5 0.00 0.00 0.00 43 1014.0
20260901020004 90 245 1.7 3.5 0.00 0.00 0.00 43 1014.0
20260901015904 90 245 0.9 3.5 0.00 0.00 0.00 43 1014.0
20260901015804 90 245 0.9 3.5 0.00 0.00 0.00 43 1013.9
20260901015704 90 245 0.9 3.5 0.00 0.00 0.00 43 1013.9
20260901015604 90 245 0.9 3.5 0.00 0.00 0.00 43 1013.9
20260901015504 90 245 0.9 3.5 0.00 0.00 0.00 43 1013.9
20260901015404 90 245 0.9 2.6 0.00 0.00 0.00 43 1013.9
20260901015305 90 246 0.9 2.6 0.00 0.00 0.00 42 1013.9
20260901015204 90 246 0.9 2.6 0.00 0.00 0.00 42 1013.9
20260901015104 90 246 0.9 2.6 0.00 0.00 0.00 42 1013.9
20260901015004 90 246 0.9 2.6 0.00 0.00 0.00 42 1013.9
20260901014904 90 246 0.9 2.6 0.00 0.00 0.00 42 1013.8
20260901014804 91 246 1.7 3.5 0.00 0.00 0.00 42 1013.8
20260901014704 91 246 1.7 4.3 0.00 0.00 0.00 42 1013.8
20260901014625 91 246 1.7 4.3 0.00 0.00 0.00 42 1013.8
20260901014525 91 246 1.7 4.3 0.00 0.00 0.00 42 1013.8
20260901014404 91 245 1.7 4.3 0.00 0.00 0.00 42 1013.8
20260901014304 91 246 1.7 4.3 0.00 0.00 0.00 42 1013.8
20260901014225 91 246 1.7 4.3 0.00 0.00 0.00 42 1013.8
20260901014104 91 246 1.7 4.3 0.00 0.00 0.00 41 1013.8
20260901014004 91 246 1.7 4.3 0.00 0.00 0.00 41 1013.8
20260901013904 91 246 1.7 4.3 0.00 0.00 0.00 41 1013.8
20260901013804 91 246 1.7 4.3 0.00 0.00 0.00 41 1013.9
20260901013725 91 246 1.7 4.3 0.00 0.00 0.00 41 1013.8
20260901013625 91 246 1.7 4.3 0.00 0.00 0.00 41 1013.8
20260901013504 91 246 0.9 4.3 0.00 0.00 0.00 41 1013.8
20260901013404 92 246 0.9 4.3 0.00 0.00 0.00 41 1013.9
20260901013304 92 246 0.9 4.3 0.00 0.00 0.00 41 1013.8
20260901013204 92 246 0.9 3.5 0.00 0.00 0.00 41 1013.8
20260901013104 92 246 0.9 3.5 0.00 0.00 0.00 41 1013.8
20260901013004 92 246 1.7 4.3 0.00 0.00 0.00 41 1013.8
20260901012904 92 246 1.7 4.3 0.00 0.00 0.00 41 1013.7
20260901012825 92 246 1.7 4.3 0.00 0.00 0.00 41 1013.7
20260901012725 92 246 1.7 4.3 0.00 0.00 0.00 41 1013.7
20260901012604 92 246 1.7 4.3 0.00 0.00 0.00 40 1013.8
20260901012525 92 246 1.7 4.3 0.00 0.00 0.00 40 1013.7
20260901012404 92 245 1.7 4.3 0.00 0.00 0.00 40 1013.6
20260901012306 92 245 1.7 4.3 0.00 0.00 0.00 40 1013.6
20260901012204 92 245 1.7 4.3 0.00 0.00 0.00 40 1013.7
20260901012104 92 245 1.7 4.3 0.00 0.00 0.00 40 1013.7
20260901012004 92 245 1.7 3.5 0.00 0.00 0.00 40 1013.6
20260901011904 92 245 1.7 3.5 0.00 0.00 0.00 40 1013.6
20260901011804 92 245 1.7 3.5 0.00 0.00 0.00 40 1013.6
20260901011704 92 245 0.9 3.5 0.00 0.00 0.00 40 1013.5
20260901011604 92 245 0.9 3.5 0.00 0.00 0.00 40 1013.6
20260901011525 92 245 0.9 2.6 0.00 0.00 0.00 40 1013.6
20260901011404 92 245 0.9 2.6 0.00 0.00 0.00 40 1013.5
20260901011304 93 245 0.9 2.6 0.00 0.00 0.00 40 1013.5
20260901011204 93 245 0.9 2.6 0.00 0.00 0.00 40 1013.5
20260901011125 93 245 1.7 2.6 0.00 0.00 0.00 40 1013.5
20260901011004 93 246 1.7 3.5 0.00 0.00 0.00 40 1013.5
20260901010904 93 246 1.7 3.5 0.00 0.00 0.00 40 1013.5
20260901010804 93 246 1.7 3.5 0.00 0.00 0.00 40 1013.5
20260901010704 93 246 1.7 3.5 0.00 0.00 0.00 40 1013.5
20260901010604 93 246 1.7 4.3 0.00 0.00 0.00 40 1013.5
20260901010504 93 247 1.7 4.3 0.00 0.00 0.00 40 1013.4
20260901010404 93 249 1.7 4.3 0.00 0.00 0.00 40 1013.5
20260901010304 93 253 1.7 5.2 0.00 0.00 0.00 39 1013.4
20260901010204 93 260 1.7 5.2 0.00 0.00 0.00 40 1013.4
20260901010104 93 266 1.7 5.2 0.00 0.00 0.00 39 1013.4
20260901010025 93 270 1.7 5.2 0.00 0.00 0.00 40 1013.4
20260901005904 94 281 1.7 5.2 0.00 0.00 0.00 39 1013.4
20260901005804 94 285 1.7 5.2 0.00 0.00 0.00 39 1013.5
20260901005704 94 287 1.7 5.2 0.00 0.00 0.00 39 1013.5
20260901005604 94 290 1.7 5.2 0.00 0.00 0.00 39 1013.4
20260901005504 94 290 1.7 5.2 0.00 0.00 0.00 39 1013.4
20260901005404 94 287 1.7 5.2 0.00 0.00 0.00 39 1013.5
20260901005306 94 284 1.7 4.3 0.00 0.00 0.00 39 1013.5
20260901005225 94 279 1.7 4.3 0.00 0.00 0.00 39 1013.5
20260901005104 94 270 1.7 4.3 0.00 0.00 0.00 39 1013.4
20260901005004 94 264 1.7 4.3 0.00 0.00 0.00 39 1013.4
20260901004904 94 257 1.7 4.3 0.00 0.00 0.00 39 1013.4
20260901004804 94 256 1.7 4.3 0.00 0.00 0.00 39 1013.4
20260901004704 94 256 1.7 4.3 0.00 0.00 0.00 39 1013.4
20260901004604 94 255 1.7 4.3 0.00 0.00 0.00 39 1013.4
20260901004504 95 255 1.7 4.3 0.00 0.00 0.00 39 1013.4
20260901004404 95 255 1.7 4.3 0.00 0.00 0.00 39 1013.4
20260901004304 95 256 1.7 4.3 0.00 0.00 0.00 38 1013.4
20260901004204 95 255 1.7 4.3 0.00 0.00 0.00 38 1013.4
20260901004104 95 255 1.7 4.3 0.00 0.00 0.00 38 1013.4
20260901004025 95 255 1.7 5.2 0.00 0.00 0.00 38 1013.5
20260901003904 95 255 2.6 6.1 0.00 0.00 0.00 38 1013.4
20260901003825 95 254 2.6 6.1 0.00 0.00 0.00 38 1013.4
20260901003704 95 255 2.6 6.1 0.00 0.00 0.00 38 1013.4
20260901003604 95 254 2.6 6.1 0.00 0.00 0.00 38 1013.4
20260901003525 95 255 2.6 6.1 0.00 0.00 0.00 38 1013.4
20260901003404 95 255 3.5 6.1 0.00 0.00 0.00 38 1013.4
20260901003304 95 254 3.5 6.1 0.00 0.00 0.00 38 1013.4
20260901003204 95 256 3.5 7.0 0.00 0.00 0.00 38 1013.4
20260901003104 95 256 3.5 7.0 0.00 0.00 0.00 38 1013.4
20260901003004 95 257 3.5 7.0 0.00 0.00 0.00 38 1013.4
20260901002904 96 258 3.5 7.0 0.00 0.00 0.00 38 1013.5
20260901002804 96 260 2.6 7.0 0.00 0.00 0.00 38 1013.4
20260901002704 96 260 2.6 7.0 0.00 0.00 0.00 38 1013.4
20260901002604 96 262 2.6 7.0 0.00 0.00 0.00 37 1013.4
20260901002504 96 263 2.6 7.0 0.00 0.00 0.00 37 1013.4
20260901002404 96 265 1.7 7.0 0.00 0.00 0.00 37 1013.4
20260901002325 96 267 1.7 7.0 0.00 0.00 0.00 37 1013.4
20260901002204 96 268 1.7 4.3 0.00 0.00 0.00 37 1013.3
20260901002104 96 269 1.7 4.3 0.00 0.00 0.00 37 1013.4
20260901002004 96 271 1.7 3.5 0.00 0.00 0.00 37 1013.3
20260901001904 96 273 1.7 3.5 0.00 0.00 0.00 37 1013.3
20260901001825 96 273 1.7 3.5 0.00 0.00 0.00 37 1013.3
20260901001704 96 275 1.7 6.1 0.00 0.00 0.00 36 1013.3
20260901001604 96 278 1.7 6.1 0.00 0.00 0.00 37 1013.3
20260901001504 96 276 1.7 6.1 0.00 0.00 0.00 36 1013.4
20260901001404 96 273 1.7 6.1 0.00 0.00 0.00 36 1013.3
20260901001304 96 271 2.6 6.1 0.00 0.00 0.00 36 1013.3
20260901001204 96 268 2.6 6.1 0.00 0.00 0.00 36 1013.3
20260901001125 96 267 2.6 6.1 0.00 0.00 0.00 36 1013.3
20260901001004 97 263 2.6 6.1 0.00 0.00 0.00 36 1013.3
20260901000904 97 261 2.6 6.1 0.00 0.00 0.00 36 1013.3
20260901000804 97 259 2.6 6.1 0.00 0.00 0.00 35 1013.2
20260901000704 97 257 2.6 6.1 0.00 0.00 0.00 35 1013.3
20260901000604 97 251 1.7 4.3 0.00 0.00 0.00 35 1013.2
20260901000504 97 250 2.6 6.1 0.00 0.00 0.00 35 1013.3
20260901000425 97 249 2.6 6.1 0.00 0.00 0.00 35 1013.2
20260901000304 97 248 2.6 6.1 0.00 0.00 0.00 35 1013.3
20260901000204 97 248 2.6 6.1 0.00 0.00 0.00 35 1013.3
20260901000106 97 248 2.6 6.1 0.00 0.00 0.00 35 1013.2
20260901000004 97 251 2.6 6.1 0.00 0.00 0.00 36 1013.3
20260831235925 97 252 2.6 6.1 0.00 0.00 0.00 36 1013.2
20260831235804 97 262 2.6 7.0 0.00 0.00 0.00 36 1013.2
20260831235704 97 266 2.6 7.0 0.00 0.00 0.00 35 1013.3
20260831235604 97 270 2.6 7.0 0.00 0.00 0.00 35 1013.2
20260831235504 97 272 2.6 7.0 0.00 0.00 0.00 35 1013.3
20260831235404 97 273 2.6 7.0 0.00 0.00 0.00 35 1013.3
20260831235325 97 274 2.6 7.0 0.00 0.00 0.00 35 1013.3
20260831235204 97 275 2.6 7.0 0.00 0.00 0.00 35 1013.3
20260831235104 97 277 2.6 7.0 0.00 0.00 0.00 35 1013.3
20260831235025 97 274 2.6 7.0 0.00 0.00 0.00 35 1013.3
20260831234904 97 269 2.6 7.8 0.00 0.00 0.00 36 1013.3
20260831234804 97 264 2.6 7.8 0.00 0.00 0.00 35 1013.2
20260831234704 97 263 2.6 7.8 0.00 0.00 0.00 35 1013.3
20260831234604 97 263 2.6 7.8 0.00 0.00 0.00 36 1013.2
20260831234504 97 267 2.6 7.8 0.00 0.00 0.00 36 1013.3
20260831234425 97 270 2.6 7.8 0.00 0.00 0.00 36 1013.3
20260831234304 97 273 2.6 7.8 0.00 0.00 0.00 36 1013.3
20260831234204 97 273 2.6 7.8 0.00 0.00 0.00 36 1013.3
20260831234104 97 274 2.6 7.8 0.00 0.00 0.00 36 1013.3
20260831234004 97 278 2.6 7.8 0.00 0.00 0.00 36 1013.3
20260831233904 97 281 2.6 7.8 0.00 0.00 0.00 36 1013.3
20260831233804 97 282 2.6 7.8 0.00 0.00 0.00 36 1013.3
20260831233704 97 278 2.6 7.8 0.00 0.00 0.00 36 1013.2
20260831233604 97 275 2.6 7.8 0.00 0.00 0.00 36 1013.3
20260831233504 97 274 2.6 7.8 0.00 0.00 0.00 36 1013.2
20260831233406 97 272 2.6 7.8 0.00 0.00 0.00 36 1013.2
20260831233304 96 273 2.6 7.8 0.00 0.00 0.00 36 1013.2
20260831233204 97 275 2.6 7.8 0.00 0.00 0.00 36 1013.2
20260831233104 97 276 2.6 7.8 0.00 0.00 0.00 36 1013.2
20260831233004 97 272 2.6 6.1 0.00 0.00 0.00 36 1013.3
20260831232904 97 271 2.6 6.1 0.00 0.00 0.00 36 1013.2
20260831232825 97 271 2.6 6.1 0.00 0.00 0.00 36 1013.3
20260831232704 97 271 2.6 6.1 0.00 0.00 0.00 36 1013.3
20260831232604 97 270 2.6 6.1 0.00 0.00 0.00 36 1013.3
20260831232504 97 267 2.6 6.1 0.00 0.00 0.00 36 1013.3
20260831232404 97 266 2.6 6.1 0.00 0.00 0.00 36 1013.3
20260831232325 97 263 2.6 6.1 0.00 0.00 0.00 36 1013.3
20260831232204 97 259 2.6 6.1 0.00 0.00 0.00 36 1013.3
20260831232104 97 257 3.5 6.1 0.00 0.00 0.00 35 1013.3
20260831232004 97 256 3.5 6.1 0.00 0.00 0.00 35 1013.3
20260831231904 97 253 3.5 7.0 0.00 0.00 0.00 35 1013.3
20260831231804 98 253 3.5 7.0 0.00 0.00 0.00 35 1013.3
20260831231704 98 253 3.5 7.0 0.00 0.00 0.00 35 1013.3
20260831231625 98 253 3.5 7.0 0.00 0.00 0.00 35 1013.3
20260831231504 98 256 2.6 7.0 0.00 0.00 0.00 34 1013.3
20260831231404 98 257 2.6 7.0 0.00 0.00 0.00 34 1013.3
20260831231304 98 262 2.6 7.0 0.00 0.00 0.00 34 1013.3
20260831231204 98 268 2.6 7.0 0.00 0.00 0.00 35 1013.3
20260831231104 98 270 2.6 7.0 0.00 0.00 0.00 35 1013.3
20260831231004 98 271 3.5 9.6 0.00 0.00 0.00 35 1013.3
20260831230904 98 272 3.5 9.6 0.00 0.00 0.00 35 1013.3
20260831230804 98 272 3.5 9.6 0.00 0.00 0.00 35 1013.3
20260831230704 98 272 3.5 9.6 0.00 0.00 0.00 35 1013.4
20260831230604 98 270 4.3 11.3 0.00 0.00 0.00 35 1013.4
20260831230525 98 268 4.3 11.3 0.00 0.00 0.00 35 1013.3
20260831230404 98 266 4.3 11.3 0.00 0.00 0.00 35 1013.3
20260831230304 98 262 4.3 11.3 0.00 0.00 0.00 35 1013.4
20260831230204 98 259 3.5 11.3 0.00 0.00 0.00 35 1013.4
20260831230104 98 258 3.5 11.3 0.00 0.00 0.00 35 1013.4
20260831230025 98 257 3.5 11.3 0.00 0.00 0.00 35 1013.4
20260831225904 98 256 3.5 11.3 0.00 0.00 0.00 35 1013.4
20260831225825 98 255 2.6 11.3 0.00 0.00 0.00 35 1013.4
20260831225704 98 253 2.6 11.3 0.00 0.00 0.00 35 1013.4
20260831225604 98 252 2.6 5.2 0.00 0.00 0.00 35 1013.4
20260831225504 98 252 2.6 5.2 0.00 0.00 0.00 35 1013.4
20260831225404 98 253 2.6 5.2 0.00 0.00 0.00 35 1013.4
20260831225306 98 253 1.7 5.2 0.00 0.00 0.00 34 1013.4
20260831225204 98 253 2.6 5.2 0.00 0.00 0.00 34 1013.4
20260831225104 98 255 2.6 5.2 0.00 0.00 0.00 34 1013.4
20260831225004 98 259 2.6 7.0 0.00 0.00 0.00 34 1013.4
20260831224925 99 262 2.6 7.0 0.00 0.00 0.00 34 1013.5
20260831224804 99 265 2.6 7.0 0.00 0.00 0.00 34 1013.4
20260831224704 99 268 2.6 7.0 0.00 0.00 0.00 34 1013.4
20260831224604 99 270 2.6 7.0 0.00 0.00 0.00 35 1013.4
20260831224504 99 269 2.6 7.0 0.00 0.00 0.00 35 1013.4
20260831224425 98 270 2.6 7.0 0.00 0.00 0.00 35 1013.4
20260831224304 98 274 2.6 7.0 0.00 0.00 0.00 35 1013.4
20260831224204 98 277 2.6 7.0 0.00 0.00 0.00 35 1013.4
20260831224125 98 280 2.6 7.0 0.00 0.00 0.00 35 1013.4
20260831224004 99 286 2.6 6.1 0.00 0.00 0.00 35 1013.5
20260831223904 99 291 2.6 6.1 0.00 0.00 0.00 35 1013.4
20260831223804 99 308 2.6 6.1 0.00 0.00 0.00 35 1013.4
20260831223704 99 313 2.6 6.1 0.00 0.00 0.00 35 1013.4
20260831223604 99 318 2.6 7.0 0.00 0.00 0.00 35 1013.4
20260831223504 99 320 2.6 7.8 0.00 0.00 0.00 35 1013.4
20260831223404 99 313 2.6 7.8 0.00 0.00 0.00 35 1013.5
20260831223325 99 305 3.5 7.8 0.00 0.00 0.00 35 1013.5
20260831223204 99 293 3.5 7.8 0.00 0.00 0.00 36 1013.5
20260831223104 98 285 3.5 7.8 0.00 0.00 0.00 35 1013.5
20260831223004 98 273 3.5 7.8 0.00 0.00 0.00 35 1013.5
20260831222904 98 264 3.5 7.8 0.00 0.00 0.00 35 1013.5
20260831222804 98 250 3.5 7.8 0.00 0.00 0.00 35 1013.6
20260831222704 98 245 3.5 7.8 0.00 0.00 0.00 36 1013.5
20260831222604 98 239 3.5 7.8 0.00 0.00 0.00 36 1013.6
20260831222504 98 239 4.3 7.0 0.00 0.00 0.00 35 1013.6
20260831222404 98 239 4.3 8.7 0.00 0.00 0.00 35 1013.6
20260831222306 98 239 4.3 8.7 0.00 0.00 0.00 35 1013.6
20260831222204 98 240 3.5 8.7 0.00 0.00 0.00 34 1013.6
20260831222104 98 244 3.5 8.7 0.00 0.00 0.00 35 1013.7
20260831222004 98 248 4.3 8.7 0.00 0.00 0.00 35 1013.7
20260831221904 98 250 4.3 8.7 0.00 0.00 0.00 35 1013.8
20260831221804 98 254 3.5 8.7 0.00 0.00 0.00 34 1013.6
20260831221704 98 257 3.5 8.7 0.00 0.00 0.00 35 1013.7
20260831221604 98 261 3.5 8.7 0.00 0.00 0.00 35 1013.7
20260831221504 98 261 3.5 8.7 0.00 0.00 0.00 35 1013.7
20260831221404 98 263 3.5 8.7 0.00 0.00 0.00 36 1013.6
20260831221304 98 263 3.5 8.7 0.00 0.00 0.00 36 1013.6
20260831221204 98 263 3.5 8.7 0.00 0.00 0.00 35 1013.6
20260831221104 98 263 3.5 8.7 0.00 0.00 0.00 35 1013.6
20260831221004 99 261 3.5 8.7 0.00 0.00 0.00 35 1013.6
20260831220904 99 261 3.5 8.7 0.00 0.00 0.00 35 1013.6
20260831220804 99 258 3.5 8.7 0.00 0.00 0.00 35 1013.6
20260831220725 99 257 3.5 8.7 0.00 0.00 0.00 35 1013.6
20260831220625 99 255 2.6 8.7 0.00 0.00 0.00 35 1013.6
20260831220504 99 252 2.6 7.0 0.00 0.00 0.00 35 1013.6
20260831220404 99 250 2.6 7.0 0.00 0.00 0.00 35 1013.6
20260831220304 99 249 2.6 7.0 0.00 0.00 0.00 35 1013.6
20260831220204 100 252 2.6 5.2 0.00 0.00 0.00 35 1013.6
20260831220104 100 257 2.6 7.0 0.00 0.00 0.00 35 1013.6
20260831220004 100 266 2.6 7.0 0.00 0.00 0.00 35 1013.6
20260831215925 100 274 2.6 7.0 0.00 0.00 0.00 34 1013.6
20260831215804 100 280 2.6 7.0 0.00 0.00 0.00 35 1013.6
20260831215704 100 283 2.6 7.0 0.00 0.00 0.00 35 1013.6
20260831215625 99 286 2.6 7.0 0.00 0.00 0.00 35 1013.6
20260831215504 99 292 2.6 7.0 0.00 0.00 0.00 35 1013.6
20260831215404 99 299 2.6 7.0 0.00 0.00 0.00 34 1013.6
20260831215306 99 294 2.6 7.0 0.00 0.00 0.00 34 1013.7
20260831215225 99 293 2.6 7.0 0.00 0.00 0.00 34 1013.7
20260831215104 99 279 2.6 6.1 0.00 0.00 0.00 35 1013.7
20260831215004 99 270 1.7 6.1 0.00 0.00 0.00 34 1013.8
20260831214904 99 262 1.7 7.0 0.00 0.00 0.00 35 1013.8
20260831214825 99 261 1.7 7.0 0.00 0.00 0.00 34 1013.8
20260831214704 99 259 2.6 7.0 0.00 0.00 0.00 34 1013.8
20260831214625 99 258 2.6 7.0 0.00 0.00 0.00 34 1013.8
20260831214504 99 257 2.6 7.0 0.00 0.00 0.00 34 1013.9
20260831214425 99 253 1.7 7.0 0.00 0.00 0.00 34 1013.9
20260831214325 99 253 1.7 7.0 0.00 0.00 0.00 33 1013.9
20260831214204 99 255 1.7 7.0 0.00 0.00 0.00 32 1013.9
20260831214104 99 257 2.6 7.0 0.00 0.00 0.00 33 1013.9
20260831214004 99 262 2.6 7.0 0.00 0.00 0.00 32 1014.0
20260831213904 99 266 2.6 7.8 0.00 0.00 0.00 33 1014.0
20260831213804 99 274 3.5 7.8 0.00 0.00 0.00 32 1014.0
20260831213725 99 279 3.5 7.8 0.00 0.00 0.00 32 1014.0
20260831213604 99 291 3.5 7.8 0.00 0.00 0.00 33 1014.0
20260831213504 99 305 3.5 7.8 0.00 0.00 0.00 34 1014.0
20260831213404 99 307 3.5 7.8 0.00 0.00 0.00 34 1014.0
20260831213304 99 306 3.5 7.8 0.00 0.00 0.00 33 1014.1
20260831213204 99 305 3.5 7.8 0.00 0.00 0.00 34 1014.1
20260831213104 99 308 3.5 7.8 0.00 0.00 0.00 34 1014.2
20260831213004 99 312 3.5 7.8 0.00 0.00 0.00 34 1014.1
20260831212904 99 313 2.6 7.8 0.00 0.00 0.00 34 1014.1
20260831212825 99 308 2.6 7.8 0.00 0.00 0.00 34 1014.1
20260831212704 99 314 2.6 7.8 0.00 0.00 0.00 34 1014.1
20260831212604 99 309 2.6 8.7 0.00 0.00 0.00 35 1014.1
20260831212504 98 300 2.6 8.7 0.00 0.00 0.00 35 1014.1
20260831212404 98 312 3.5 8.7 0.00 0.00 0.00 35 1014.1
20260831212306 98 317 3.5 8.7 0.00 0.00 0.00 35 1014.0
20260831212204 98 331 3.5 8.7 0.00 0.00 0.00 35 1014.0
20260831212125 98 340 3.5 8.7 0.00 0.00 0.00 35 1014.1
20260831212025 98 349 3.5 8.7 0.00 0.00 0.00 34 1014.1
20260831211904 99 2 3.5 8.7 0.00 0.00 0.00 35 1014.2
20260831211804 98 12 3.5 8.7 0.00 0.00 0.00 35 1014.1
20260831211704 98 15 3.5 9.6 0.00 0.00 0.00 35 1014.2
20260831211604 99 24 3.5 9.6 0.00 0.00 0.00 35 1014.2
20260831211525 99 27 3.5 9.6 0.00 0.00 0.00 35 1014.3
20260831211403 99 32 3.5 9.6 0.00 0.00 0.00 34 1014.2
20260831211304 99 35 3.5 9.6 0.00 0.00 0.00 35 1014.3
20260831211204 99 30 4.3 9.6 0.00 0.00 0.00 35 1014.3
20260831211104 99 20 4.3 9.6 0.00 0.00 0.00 35 1014.3
20260831211004 99 12 3.5 9.6 0.00 0.00 0.00 34 1014.3
20260831210904 99 5 3.5 9.6 0.00 0.00 0.00 34 1014.3
20260831210804 99 352 3.5 9.6 0.00 0.00 0.00 34 1014.4
20260831210704 99 324 3.5 7.8 0.00 0.00 0.00 35 1014.4
20260831210604 99 305 3.5 7.0 0.00 0.00 0.00 34 1014.4
20260831210504 98 288 3.5 7.0 0.00 0.00 0.00 35 1014.4
20260831210403 98 276 3.5 7.0 0.00 0.00 0.00 35 1014.5
20260831210304 98 276 3.5 7.0 0.00 0.00 0.00 35 1014.5
20260831210204 98 276 2.6 7.0 0.00 0.00 0.00 35 1014.5
20260831210104 98 273 2.6 7.0 0.00 0.00 0.00 35 1014.5
20260831210004 98 275 2.6 7.0 0.00 0.00 0.00 35 1014.6
20260831205904 98 278 2.6 7.0 0.00 0.00 0.00 36 1014.6
20260831205804 98 282 2.6 7.0 0.00 0.00 0.00 35 1014.5
20260831205704 98 284 2.6 7.0 0.00 0.00 0.00 35 1014.5
20260831205604 98 284 2.6 7.0 0.00 0.00 0.00 36 1014.6
20260831205504 98 280 2.6 7.0 0.00 0.00 0.00 35 1014.6
20260831205404 98 280 2.6 7.0 0.00 0.00 0.00 35 1014.6
20260831205305 98 276 2.6 7.0 0.00 0.00 0.00 36 1014.6
20260831205204 98 268 2.6 7.8 0.00 0.00 0.00 36 1014.6
20260831205104 98 264 2.6 7.8 0.00 0.00 0.00 36 1014.6
20260831205004 98 265 2.6 7.8 0.00 0.00 0.00 36 1014.7
20260831204904 98 264 3.5 7.8 0.00 0.00 0.00 36 1014.8
20260831204804 98 260 3.5 7.8 0.00 0.00 0.00 36 1014.7
20260831204704 98 260 2.6 7.8 0.00 0.00 0.00 35 1014.8
20260831204604 98 262 2.6 7.8 0.00 0.00 0.00 36 1014.8
20260831204504 98 266 2.6 7.8 0.00 0.00 0.00 36 1014.8
20260831204404 98 264 3.5 7.8 0.00 0.00 0.00 36 1014.8
20260831204304 98 262 3.5 7.8 0.00 0.00 0.00 36 1014.8
20260831204204 98 262 2.6 7.8 0.00 0.00 0.00 35 1014.8
20260831204104 98 263 2.6 7.8 0.00 0.00 0.00 35 1014.9
20260831204025 98 264 2.6 7.8 0.00 0.00 0.00 35 1014.9
20260831203904 98 265 2.6 7.8 0.00 0.00 0.00 35 1014.9
20260831203825 98 268 2.6 7.8 0.00 0.00 0.00 36 1014.9
20260831203704 97 270 2.6 7.8 0.00 0.00 0.00 36 1015.0
20260831203604 97 271 2.6 7.8 0.00 0.00 0.00 35 1015.0
20260831203504 97 274 2.6 7.8 0.00 0.00 0.00 35 1015.1
20260831203404 97 285 2.6 7.8 0.00 0.00 0.00 34 1015.0
20260831203304 97 291 1.7 7.8 0.00 0.00 0.00 37 1015.1
20260831203204 97 296 1.7 7.8 0.00 0.00 0.00 38 1015.0
20260831203104 97 299 1.7 7.8 0.00 0.00 0.00 36 1015.1
20260831203004 97 304 1.7 7.8 0.00 0.00 0.00 36 1015.1
20260831202904 98 313 1.7 7.8 0.00 0.00 0.00 36 1015.1
20260831202825 98 319 1.7 7.8 0.00 0.00 0.00 36 1015.1
20260831202704 98 323 2.6 7.8 0.00 0.00 0.00 36 1015.1
20260831202625 98 325 2.6 7.8 0.00 0.00 0.00 36 1015.2
20260831202504 98 335 2.6 7.8 0.00 0.00 0.00 35 1015.2
20260831202404 98 331 2.6 7.8 0.00 0.00 0.00 35 1015.2
20260831202306 98 330 2.6 7.8 0.00 0.00 0.00 35 1015.2
20260831202225 98 325 2.6 7.8 0.00 0.00 0.00 35 1015.2
20260831202104 98 322 3.5 7.8 0.00 0.00 0.00 35 1015.2
20260831202025 98 322 2.6 7.8 0.00 0.00 0.00 35 1015.2
20260831201904 98 325 2.6 7.8 0.00 0.00 0.00 35 1015.3
20260831201803 98 338 2.6 7.8 0.00 0.00 0.00 35 1015.3
20260831201704 98 355 2.6 7.8 0.00 0.00 0.00 36 1015.3
20260831201625 98 3 2.6 7.8 0.00 0.00 0.00 35 1015.3
20260831201504 98 352 2.6 7.8 0.00 0.00 0.00 36 1015.3
20260831201404 98 1 2.6 7.8 0.00 0.00 0.00 36 1015.4
20260831201304 98 2 2.6 7.8 0.00 0.00 0.00 35 1015.4
20260831201204 99 7 2.6 7.8 0.00 0.00 0.00 35 1015.4
20260831201103 99 6 2.6 7.8 0.00 0.00 0.00 35 1015.4
20260831201003 99 359 3.5 7.8 0.00 0.00 0.00 36 1015.4
20260831200904 98 351 3.5 10.4 0.00 0.00 0.00 35 1015.4
20260831200804 99 347 3.5 10.4 0.00 0.00 0.00 35 1015.4
20260831200704 99 342 3.5 10.4 0.00 0.00 0.00 35 1015.5
20260831200625 99 338 3.5 10.4 0.00 0.00 0.00 35 1015.4
20260831200504 98 331 3.5 10.4 0.00 0.00 0.00 36 1015.5
20260831200404 98 326 3.5 10.4 0.00 0.00 0.00 36 1015.5
20260831200304 98 320 3.5 10.4 0.00 0.00 0.00 36 1015.5
20260831200225 98 312 3.5 10.4 0.00 0.00 0.00 36 1015.5
20260831200104 98 303 3.5 10.4 0.00 0.00 0.00 36 1015.5
20260831200003 98 298 3.5 10.4 0.00 0.00 0.00 36 1015.5
20260831195904 98 292 3.5 9.6 0.00 0.00 0.00 36 1015.5
20260831195804 98 284 3.5 9.6 0.00 0.00 0.00 36 1015.4
20260831195725 97 280 3.5 9.6 0.00 0.00 0.00 36 1015.5
20260831195603 97 281 3.5 9.6 0.00 0.00 0.00 36 1015.6
20260831195504 97 278 3.5 9.6 0.00 0.00 0.00 36 1015.6
20260831195404 97 274 3.5 7.8 0.00 0.00 0.00 36 1015.6
20260831195325 97 280 3.5 7.8 0.00 0.00 0.00 36 1015.6
20260831195225 97 289 3.5 7.8 0.00 0.00 0.00 35 1015.6
20260831195104 97 305 3.5 7.8 0.00 0.00 0.00 35 1015.6
20260831195004 97 316 3.5 7.8 0.00 0.00 0.00 35 1015.7
20260831194904 97 324 3.5 7.8 0.00 0.00 0.00 35 1015.7
20260831194803 97 323 3.5 7.8 0.00 0.00 0.00 35 1015.7
20260831194725 97 324 2.6 7.8 0.00 0.00 0.00 36 1015.7
20260831194604 97 328 2.6 7.8 0.00 0.00 0.00 35 1015.7
20260831194504 97 329 2.6 7.8 0.00 0.00 0.00 35 1015.7
20260831194425 97 328 2.6 7.8 0.00 0.00 0.00 35 1015.7
20260831194303 96 315 2.6 7.8 0.00 0.00 0.00 37 1015.7
20260831194204 96 310 2.6 7.8 0.00 0.00 0.00 37 1015.7
20260831194125 96 302 2.6 7.8 0.00 0.00 0.00 37 1015.7
20260831194004 96 294 2.6 7.8 0.00 0.00 0.00 36 1015.8
20260831193904 96 280 2.6 7.0 0.00 0.00 0.00 37 1015.7
20260831193804 96 289 2.6 7.0 0.00 0.00 0.00 37 1015.7
20260831193703 96 299 2.6 7.0 0.00 0.00 0.00 37 1015.8
20260831193604 96 310 2.6 7.0 0.00 0.00 0.00 37 1015.8
20260831193525 97 320 2.6 7.0 0.00 0.00 0.00 36 1015.9
20260831193425 97 334 2.6 7.0 0.00 0.00 0.00 37 1015.9
20260831193304 96 350 2.6 7.0 0.00 0.00 0.00 37 1015.9
20260831193204 96 359 2.6 7.0 0.00 0.00 0.00 37 1015.9
20260831193125 96 5 2.6 7.0 0.00 0.00 0.00 37 1015.9
20260831193004 96 13 2.6 7.0 0.00 0.00 0.00 37 1015.9
20260831192904 96 14 2.6 7.0 0.00 0.00 0.00 37 1015.9
20260831192803 96 17 2.6 7.0 0.00 0.00 0.00 37 1015.9
20260831192704 96 19 2.6 7.0 0.00 0.00 0.00 36 1015.9
20260831192604 96 14 2.6 7.0 0.00 0.00 0.00 37 1016.0
20260831192504 96 14 2.6 7.0 0.00 0.00 0.00 37 1016.0
20260831192404 97 360 2.6 7.0 0.00 0.00 0.00 36 1016.0
20260831192305 97 339 2.6 7.0 0.00 0.00 0.00 36 1016.0
20260831192204 97 344 2.6 7.0 0.00 0.00 0.00 36 1016.0
20260831192125 97 334 2.6 7.0 0.00 0.00 0.00 36 1016.0
20260831192004 97 314 2.6 6.1 0.00 0.00 0.00 36 1016.0
20260831191904 97 313 2.6 6.1 0.00 0.00 0.00 36 1016.1
20260831191803 97 311 2.6 6.1 0.00 0.00 0.00 36 1016.1
20260831191704 97 312 2.6 6.1 0.00 0.00 0.00 37 1016.1
20260831191625 97 314 2.6 6.1 0.00 0.00 0.00 37 1016.2
20260831191504 96 313 2.6 6.1 0.00 0.00 0.00 37 1016.2
20260831191425 96 313 3.5 7.8 0.00 0.00 0.00 37 1016.2
20260831191325 96 320 3.5 8.7 0.00 0.00 0.00 37 1016.2